Observation data for Dozier on 02/16/2017      Previous  Date  Next       Current Mesonet Observations  Soil Data  Daily Summary Page  Observations in Plain Language
KDO1 160600Z 25004KT 04/M02 A301 RMK A01 T00381023  RH  064%=      5-min Rain = 0
KDO1 160601Z 25004KT 04/M02 A301 RMK A01 T00381024  RH  064%=      5-min Rain = 0
KDO1 160602Z 25003KT 04/M02 A301 RMK A01 T00371024  RH  064%=      5-min Rain = 0
KDO1 160603Z 26003KT 04/M02 A301 RMK A01 T00371024  RH  064%=      5-min Rain = 0
KDO1 160604Z 25003KT 04/M02 A301 RMK A01 T00371024  RH  064%=      5-min Rain = 0
KDO1 160605Z 25003KT 04/M03 A301 RMK A01 T00361025  RH  064%=      5-min Rain = 0
KDO1 160606Z 25004KT 04/M03 A301 RMK A01 T00351026  RH  064%=      5-min Rain = 0
KDO1 160607Z 24004KT 03/M03 A301 RMK A01 T00331027  RH  065%=      5-min Rain = 0
KDO1 160608Z 25003KT 03/M03 A301 RMK A01 T00321027  RH  065%=      5-min Rain = 0
KDO1 160609Z 25003KT 03/M03 A3009 RMK A01 T00321027  RH  065%=      5-min Rain = 0
KDO1 160610Z 25004KT 03/M03 A3009 RMK A01 T00321026  RH  066%=      5-min Rain = 0
KDO1 160611Z 25004KT 03/M03 A3009 RMK A01 T00321026  RH  066%=      5-min Rain = 0
KDO1 160612Z 25004KT 03/M03 A3009 RMK A01 T00321026  RH  066%=      5-min Rain = 0
KDO1 160613Z 25004KT 03/M03 A3009 RMK A01 T00321025  RH  066%=      5-min Rain = 0
KDO1 160614Z 25004KT 03/M03 A3009 RMK A01 T00311026  RH  066%=      5-min Rain = 0
KDO1 160615Z 25003KT 03/M03 A301 RMK A01 T00311026  RH  066%=      5-min Rain = 0
KDO1 160616Z 25004KT 03/M03 A301 RMK A01 T00311026  RH  066%=      5-min Rain = 0
KDO1 160617Z 25003KT 03/M03 A301 RMK A01 T00301027  RH  066%=      5-min Rain = 0
KDO1 160618Z 25003KT 03/M03 A301 RMK A01 T00301027  RH  066%=      5-min Rain = 0
KDO1 160619Z 26002KT 03/M03 A301 RMK A01 T00291028  RH  066%=      5-min Rain = 0
KDO1 160620Z 26002KT 03/M03 A301 RMK A01 T00281028  RH  067%=      5-min Rain = 0
KDO1 160621Z 26002KT 03/M03 A301 RMK A01 T00281027  RH  067%=      5-min Rain = 0
KDO1 160622Z 27002KT 03/M03 A301 RMK A01 T00281027  RH  067%=      5-min Rain = 0
KDO1 160623Z 28001KT 03/M03 A301 RMK A01 T00281027  RH  067%=      5-min Rain = 0
KDO1 160624Z 29001KT 03/M03 A301 RMK A01 T00271028  RH  067%=      5-min Rain = 0
KDO1 160625Z 28000KT 03/M03 A301 RMK A01 T00271028  RH  067%=      5-min Rain = 0
KDO1 160626Z 28001KT 03/M03 A301 RMK A01 T00251028  RH  068%=      5-min Rain = 0
KDO1 160627Z 28001KT 02/M03 A301 RMK A01 T00241029  RH  068%=      5-min Rain = 0
KDO1 160628Z 28002KT 02/M03 A301 RMK A01 T00241029  RH  068%=      5-min Rain = 0
KDO1 160629Z 28002KT 02/M03 A301 RMK A01 T00231028  RH  069%=      5-min Rain = 0
KDO1 160630Z 28001KT 02/M03 A301 RMK A01 T00231029  RH  069%=      5-min Rain = 0
KDO1 160631Z 28001KT 02/M03 A301 RMK A01 T00231028  RH  069%=      5-min Rain = 0
KDO1 160632Z 28001KT 02/M03 A301 RMK A01 T00231028  RH  069%=      5-min Rain = 0
KDO1 160633Z 28001KT 02/M03 A301 RMK A01 T00221028  RH  070%=      5-min Rain = 0
KDO1 160634Z 28001KT 02/M03 A301 RMK A01 T00221027  RH  070%=      5-min Rain = 0
KDO1 160635Z 28001KT 02/M03 A301 RMK A01 T00211028  RH  070%=      5-min Rain = 0
KDO1 160636Z 28001KT 02/M03 A301 RMK A01 T00211028  RH  070%=      5-min Rain = 0
KDO1 160637Z 28002KT 02/M03 A301 RMK A01 T00211028  RH  070%=      5-min Rain = 0
KDO1 160638Z 27002KT 02/M03 A301 RMK A01 T00211028  RH  070%=      5-min Rain = 0
KDO1 160639Z 27002KT 02/M03 A3009 RMK A01 T00211028  RH  070%=      5-min Rain = 0
KDO1 160640Z 27002KT 02/M03 A3009 RMK A01 T00221027  RH  070%=      5-min Rain = 0
KDO1 160641Z 27003KT 02/M03 A3009 RMK A01 T00221027  RH  070%=      5-min Rain = 0
KDO1 160642Z 27003KT 02/M03 A3009 RMK A01 T00231026  RH  070%=      5-min Rain = 0
KDO1 160643Z 27002KT 02/M03 A3009 RMK A01 T00231026  RH  070%=      5-min Rain = 0
KDO1 160644Z 26003KT 02/M03 A3009 RMK A01 T00241026  RH  070%=      5-min Rain = 0
KDO1 160645Z 26003KT 02/M03 A3009 RMK A01 T00241026  RH  070%=      5-min Rain = 0
KDO1 160646Z 26003KT 02/M03 A3009 RMK A01 T00231026  RH  070%=      5-min Rain = 0
KDO1 160647Z 26003KT 02/M03 A3009 RMK A01 T00231026  RH  070%=      5-min Rain = 0
KDO1 160648Z 26004KT 02/M03 A3009 RMK A01 T00231026  RH  070%=      5-min Rain = 0
KDO1 160649Z 26004KT 02/M03 A3009 RMK A01 T00231026  RH  070%=      5-min Rain = 0
KDO1 160650Z 26004KT 02/M03 A3009 RMK A01 T00241025  RH  070%=      5-min Rain = 0
KDO1 160651Z 26004KT 02/M03 A3009 RMK A01 T00231026  RH  070%=      5-min Rain = 0
KDO1 160652Z 26004KT 02/M03 A3009 RMK A01 T00241026  RH  070%=      5-min Rain = 0
KDO1 160653Z 26004KT 02/M03 A3009 RMK A01 T00231026  RH  070%=      5-min Rain = 0
KDO1 160654Z 26004KT 02/M03 A3009 RMK A01 T00231026  RH  070%=      5-min Rain = 0
KDO1 160655Z 26004KT 02/M03 A3009 RMK A01 T00231025  RH  071%=      5-min Rain = 0
KDO1 160656Z 26005KT 02/M03 A3009 RMK A01 T00231025  RH  071%=      5-min Rain = 0
KDO1 160657Z 26005KT 02/M03 A3009 RMK A01 T00231025  RH  071%=      5-min Rain = 0
KDO1 160658Z 26005KT 02/M03 A3009 RMK A01 T00231025  RH  071%=      5-min Rain = 0
KDO1 160659Z 26005KT 02/M02 A3009 RMK A01 T00231024  RH  071%=      5-min Rain = 0
KDO1 160700Z 26006KT 02/M02 A3009 RMK A01 T00241024  RH  071%=      5-min Rain = 0
KDO1 160701Z 26006KT 02/M02 A3009 RMK A01 T00241024  RH  070%=      5-min Rain = 0
KDO1 160702Z 26005KT 03/M02 A3009 RMK A01 T00261023  RH  070%=      5-min Rain = 0
KDO1 160703Z 26005KT 03/M02 A3009 RMK A01 T00261023  RH  070%=      5-min Rain = 0
KDO1 160704Z 26005KT 03/M02 A3009 RMK A01 T00261023  RH  070%=      5-min Rain = 0
KDO1 160705Z 26005KT 03/M02 A3009 RMK A01 T00261023  RH  070%=      5-min Rain = 0
KDO1 160706Z 26006KT 03/M02 A3009 RMK A01 T00271023  RH  070%=      5-min Rain = 0
KDO1 160707Z 26006KT 03/M02 A3009 RMK A01 T00271023  RH  070%=      5-min Rain = 0
KDO1 160708Z 26006KT 03/M02 A3009 RMK A01 T00281022  RH  070%=      5-min Rain = 0
KDO1 160709Z 26006KT 03/M02 A3009 RMK A01 T00281022  RH  069%=      5-min Rain = 0
KDO1 160710Z 26005KT 03/M02 A3009 RMK A01 T00291022  RH  069%=      5-min Rain = 0
KDO1 160711Z 26005KT 03/M02 A3008 RMK A01 T00291022  RH  069%=      5-min Rain = 0
KDO1 160712Z 26005KT 03/M02 A3008 RMK A01 T00291022  RH  069%=      5-min Rain = 0
KDO1 160713Z 26004KT 03/M02 A3008 RMK A01 T00291022  RH  069%=      5-min Rain = 0
KDO1 160714Z 26004KT 03/M02 A3008 RMK A01 T00291022  RH  069%=      5-min Rain = 0
KDO1 160715Z 27002KT 03/M02 A3008 RMK A01 T00291023  RH  069%=      5-min Rain = 0
KDO1 160716Z 27002KT 03/M02 A3008 RMK A01 T00271024  RH  069%=      5-min Rain = 0
KDO1 160717Z 27001KT 03/M03 A3008 RMK A01 T00251025  RH  069%=      5-min Rain = 0
KDO1 160718Z 26002KT 02/M03 A3008 RMK A01 T00231026  RH  070%=      5-min Rain = 0
KDO1 160719Z 27002KT 02/M03 A3008 RMK A01 T00211027  RH  070%=      5-min Rain = 0
KDO1 160720Z 27002KT 02/M03 A3008 RMK A01 T00201028  RH  071%=      5-min Rain = 0
KDO1 160721Z 27002KT 02/M03 A3008 RMK A01 T00191027  RH  071%=      5-min Rain = 0
KDO1 160722Z 27001KT 02/M03 A3008 RMK A01 T00191028  RH  071%=      5-min Rain = 0
KDO1 160723Z 26002KT 02/M03 A3008 RMK A01 T00191027  RH  072%=      5-min Rain = 0
KDO1 160724Z 26002KT 02/M03 A3008 RMK A01 T00191027  RH  072%=      5-min Rain = 0
KDO1 160725Z 26002KT 02/M03 A3008 RMK A01 T00201026  RH  072%=      5-min Rain = 0
KDO1 160726Z 26002KT 02/M03 A3008 RMK A01 T00201025  RH  072%=      5-min Rain = 0
KDO1 160727Z 26002KT 02/M03 A3008 RMK A01 T00211025  RH  072%=      5-min Rain = 0
KDO1 160728Z 26002KT 02/M02 A3008 RMK A01 T00211024  RH  072%=      5-min Rain = 0
KDO1 160729Z 25002KT 02/M02 A3008 RMK A01 T00221024  RH  072%=      5-min Rain = 0
KDO1 160730Z 25001KT 02/M02 A3007 RMK A01 T00221023  RH  072%=      5-min Rain = 0
KDO1 160731Z 25001KT 02/M02 A3007 RMK A01 T00221023  RH  072%=      5-min Rain = 0
KDO1 160732Z 25001KT 02/M02 A3008 RMK A01 T00221023  RH  072%=      5-min Rain = 0
KDO1 160733Z 25002KT 02/M02 A3008 RMK A01 T00211023  RH  072%=      5-min Rain = 0
KDO1 160734Z 25002KT 02/M02 A3007 RMK A01 T00211023  RH  073%=      5-min Rain = 0
KDO1 160735Z 24001KT 02/M02 A3007 RMK A01 T00211023  RH  073%=      5-min Rain = 0
KDO1 160736Z 24002KT 02/M02 A3007 RMK A01 T00201024  RH  073%=      5-min Rain = 0
KDO1 160737Z 25002KT 02/M02 A3007 RMK A01 T00191024  RH  073%=      5-min Rain = 0
KDO1 160738Z 25002KT 02/M03 A3007 RMK A01 T00191025  RH  073%=      5-min Rain = 0
KDO1 160739Z 25002KT 02/M03 A3007 RMK A01 T00191025  RH  072%=      5-min Rain = 0
KDO1 160740Z 24002KT 02/M03 A3007 RMK A01 T00201025  RH  072%=      5-min Rain = 0
KDO1 160741Z 24002KT 02/M03 A3007 RMK A01 T00191025  RH  072%=      5-min Rain = 0
KDO1 160742Z 24002KT 02/M03 A3007 RMK A01 T00191025  RH  072%=      5-min Rain = 0
KDO1 160743Z 24003KT 02/M03 A3007 RMK A01 T00191025  RH  072%=      5-min Rain = 0
KDO1 160744Z 24003KT 02/M03 A3007 RMK A01 T00191025  RH  072%=      5-min Rain = 0
KDO1 160745Z 24003KT 02/M03 A3007 RMK A01 T00191025  RH  072%=      5-min Rain = 0
KDO1 160746Z 24003KT 02/M03 A3007 RMK A01 T00191025  RH  072%=      5-min Rain = 0
KDO1 160747Z 24003KT 02/M03 A3007 RMK A01 T00191025  RH  072%=      5-min Rain = 0
KDO1 160748Z 23003KT 02/M03 A3007 RMK A01 T00191026  RH  072%=      5-min Rain = 0
KDO1 160749Z 23003KT 02/M03 A3007 RMK A01 T00181026  RH  072%=      5-min Rain = 0
KDO1 160750Z 24002KT 02/M03 A3007 RMK A01 T00181026  RH  072%=      5-min Rain = 0
KDO1 160751Z 24002KT 02/M03 A3007 RMK A01 T00181027  RH  072%=      5-min Rain = 0
KDO1 160752Z 24002KT 02/M03 A3007 RMK A01 T00171027  RH  072%=      5-min Rain = 0
KDO1 160753Z 24002KT 02/M03 A3007 RMK A01 T00171028  RH  072%=      5-min Rain = 0
KDO1 160754Z 23002KT 02/M03 A3007 RMK A01 T00161028  RH  072%=      5-min Rain = 0
KDO1 160755Z 24001KT 02/M03 A3007 RMK A01 T00161028  RH  073%=      5-min Rain = 0
KDO1 160756Z 22001KT 02/M03 A3007 RMK A01 T00151028  RH  073%=      5-min Rain = 0
KDO1 160757Z 22001KT 02/M03 A3007 RMK A01 T00161028  RH  073%=      5-min Rain = 0
KDO1 160758Z 23001KT 02/M03 A3007 RMK A01 T00161027  RH  073%=      5-min Rain = 0
KDO1 160759Z 24001KT 02/M03 A3007 RMK A01 T00161028  RH  073%=      5-min Rain = 0
KDO1 160800Z 24002KT 02/M03 A3007 RMK A01 T00161027  RH  073%=      5-min Rain = 0
KDO1 160801Z 24002KT 02/M03 A3007 RMK A01 T00161027  RH  073%=      5-min Rain = 0
KDO1 160802Z 24002KT 02/M03 A3007 RMK A01 T00161027  RH  073%=      5-min Rain = 0
KDO1 160803Z 24003KT 02/M03 A3007 RMK A01 T00161027  RH  073%=      5-min Rain = 0
KDO1 160804Z 24003KT 02/M03 A3007 RMK A01 T00171026  RH  073%=      5-min Rain = 0
KDO1 160805Z 24004KT 02/M03 A3007 RMK A01 T00171026  RH  073%=      5-min Rain = 0
KDO1 160806Z 24004KT 02/M03 A3007 RMK A01 T00181026  RH  073%=      5-min Rain = 0
KDO1 160807Z 24004KT 02/M03 A3007 RMK A01 T00181026  RH  073%=      5-min Rain = 0
KDO1 160808Z 24004KT 02/M03 A3007 RMK A01 T00181026  RH  073%=      5-min Rain = 0
KDO1 160809Z 25004KT 02/M03 A3007 RMK A01 T00181026  RH  073%=      5-min Rain = 0
KDO1 160810Z 25004KT 02/M03 A3007 RMK A01 T00181026  RH  073%=      5-min Rain = 0
KDO1 160811Z 25004KT 02/M03 A3007 RMK A01 T00171026  RH  073%=      5-min Rain = 0
KDO1 160812Z 25004KT 02/M03 A3007 RMK A01 T00171026  RH  073%=      5-min Rain = 0
KDO1 160813Z 25004KT 02/M03 A3007 RMK A01 T00181026  RH  073%=      5-min Rain = 0
KDO1 160814Z 25004KT 02/M03 A3007 RMK A01 T00171026  RH  073%=      5-min Rain = 0
KDO1 160815Z 25004KT 02/M03 A3007 RMK A01 T00171026  RH  073%=      5-min Rain = 0
KDO1 160816Z 25003KT 02/M03 A3007 RMK A01 T00181026  RH  073%=      5-min Rain = 0
KDO1 160817Z 25003KT 02/M03 A3007 RMK A01 T00181025  RH  073%=      5-min Rain = 0
KDO1 160818Z 25003KT 02/M03 A3007 RMK A01 T00171026  RH  073%=      5-min Rain = 0
KDO1 160819Z 26004KT 02/M03 A3007 RMK A01 T00171026  RH  073%=      5-min Rain = 0
KDO1 160820Z 26004KT 02/M03 A3007 RMK A01 T00171026  RH  073%=      5-min Rain = 0
KDO1 160821Z 25004KT 02/M03 A3007 RMK A01 T00171026  RH  073%=      5-min Rain = 0
KDO1 160822Z 25004KT 02/M03 A3007 RMK A01 T00161026  RH  074%=      5-min Rain = 0
KDO1 160823Z 24004KT 02/M03 A3007 RMK A01 T00161026  RH  074%=      5-min Rain = 0
KDO1 160824Z 24004KT 02/M03 A3006 RMK A01 T00161026  RH  074%=      5-min Rain = 0
KDO1 160825Z 24003KT 02/M03 A3006 RMK A01 T00161026  RH  074%=      5-min Rain = 0
KDO1 160826Z 24003KT 02/M03 A3006 RMK A01 T00161026  RH  074%=      5-min Rain = 0
KDO1 160827Z 25003KT 02/M03 A3006 RMK A01 T00161026  RH  074%=      5-min Rain = 0
KDO1 160828Z 25003KT 01/M03 A3006 RMK A01 T00141028  RH  073%=      5-min Rain = 0
KDO1 160829Z 24003KT 01/M03 A3006 RMK A01 T00121029  RH  074%=      5-min Rain = 0
KDO1 160830Z 24003KT 01/M03 A3006 RMK A01 T00111029  RH  074%=      5-min Rain = 0
KDO1 160831Z 24003KT 01/M03 A3006 RMK A01 T00111029  RH  075%=      5-min Rain = 0
KDO1 160832Z 24003KT 01/M03 A3006 RMK A01 T00101030  RH  075%=      5-min Rain = 0
KDO1 160833Z 25004KT 01/M03 A3006 RMK A01 T00101029  RH  075%=      5-min Rain = 0
KDO1 160834Z 25004KT 01/M03 A3006 RMK A01 T00101029  RH  075%=      5-min Rain = 0
KDO1 160835Z 25004KT 01/M03 A3006 RMK A01 T00111028  RH  075%=      5-min Rain = 0
KDO1 160836Z 25004KT 01/M03 A3006 RMK A01 T00111028  RH  075%=      5-min Rain = 0
KDO1 160837Z 25003KT 01/M03 A3006 RMK A01 T00121027  RH  075%=      5-min Rain = 0
KDO1 160838Z 25003KT 01/M03 A3006 RMK A01 T00131026  RH  075%=      5-min Rain = 0
KDO1 160839Z 26003KT 01/M03 A3006 RMK A01 T00141026  RH  075%=      5-min Rain = 0
KDO1 160840Z 26003KT 02/M03 A3005 RMK A01 T00151025  RH  075%=      5-min Rain = 0
KDO1 160841Z 26002KT 02/M02 A3005 RMK A01 T00161024  RH  074%=      5-min Rain = 0
KDO1 160842Z 26002KT 02/M02 A3005 RMK A01 T00171024  RH  074%=      5-min Rain = 0
KDO1 160843Z 26002KT 02/M02 A3005 RMK A01 T00171024  RH  074%=      5-min Rain = 0
KDO1 160844Z 26002KT 02/M02 A3005 RMK A01 T00171024  RH  074%=      5-min Rain = 0
KDO1 160845Z 26002KT 02/M02 A3005 RMK A01 T00181024  RH  074%=      5-min Rain = 0
KDO1 160846Z 24001KT 02/M03 A3005 RMK A01 T00181025  RH  073%=      5-min Rain = 0
KDO1 160847Z 22001KT 02/M03 A3005 RMK A01 T00181025  RH  073%=      5-min Rain = 0
KDO1 160848Z 20001KT 02/M03 A3005 RMK A01 T00181026  RH  073%=      5-min Rain = 0
KDO1 160849Z 21002KT 01/M03 A3005 RMK A01 T00141029  RH  073%=      5-min Rain = 0
KDO1 160850Z 21002KT 01/M03 A3005 RMK A01 T00101032  RH  073%=      5-min Rain = 0
KDO1 160851Z 22002KT 01/M03 A3005 RMK A01 T00071034  RH  074%=      5-min Rain = 0
KDO1 160852Z 21002KT 01/M03 A3005 RMK A01 T00051034  RH  075%=      5-min Rain = 0
KDO1 160853Z 20002KT 01/M03 A3005 RMK A01 T00051033  RH  076%=      5-min Rain = 0
KDO1 160854Z 20003KT 00/M03 A3005 RMK A01 T00041033  RH  076%=      5-min Rain = 0
KDO1 160855Z 20003KT 00/M04 A3005 RMK A01 T00031035  RH  075%=      5-min Rain = 0
KDO1 160856Z 20003KT 00/M04 A3005 RMK A01 T00011038  RH  075%=      5-min Rain = 0
KDO1 160857Z 20003KT M00/M04 A3005 RMK A01 T10021040  RH  075%=      5-min Rain = 0
KDO1 160858Z 19003KT M01/M04 A3005 RMK A01 T10051042  RH  076%=      5-min Rain = 0
KDO1 160859Z 19003KT M01/M04 A3005 RMK A01 T10081044  RH  077%=      5-min Rain = 0
KDO1 160900Z 19003KT M01/M05 A3005 RMK A01 T10111046  RH  077%=      5-min Rain = 0
KDO1 160901Z 19003KT M01/M05 A3005 RMK A01 T10131048  RH  077%=      5-min Rain = 0
KDO1 160902Z 19003KT M01/M05 A3005 RMK A01 T10141047  RH  078%=      5-min Rain = 0
KDO1 160903Z 18003KT M01/M05 A3005 RMK A01 T10141046  RH  079%=      5-min Rain = 0
KDO1 160904Z 18003KT M01/M05 A3005 RMK A01 T10141045  RH  079%=      5-min Rain = 0
KDO1 160905Z 18003KT M01/M04 A3005 RMK A01 T10141044  RH  080%=      5-min Rain = 0
KDO1 160906Z 17003KT M01/M04 A3005 RMK A01 T10131044  RH  080%=      5-min Rain = 0
KDO1 160907Z 17002KT M01/M04 A3005 RMK A01 T10131044  RH  079%=      5-min Rain = 0
KDO1 160908Z 17003KT M01/M05 A3005 RMK A01 T10131045  RH  079%=      5-min Rain = 0
KDO1 160909Z 17003KT M01/M05 A3005 RMK A01 T10131045  RH  079%=      5-min Rain = 0
KDO1 160910Z 18003KT M01/M05 A3005 RMK A01 T10141045  RH  079%=      5-min Rain = 0
KDO1 160911Z 18003KT M01/M05 A3005 RMK A01 T10141045  RH  079%=      5-min Rain = 0
KDO1 160912Z 18003KT M01/M04 A3005 RMK A01 T10141044  RH  080%=      5-min Rain = 0
KDO1 160913Z 18003KT M01/M04 A3005 RMK A01 T10141044  RH  080%=      5-min Rain = 0
KDO1 160914Z 18003KT M01/M04 A3005 RMK A01 T10141043  RH  080%=      5-min Rain = 0
KDO1 160915Z 18003KT M01/M04 A3005 RMK A01 T10131043  RH  081%=      5-min Rain = 0
KDO1 160916Z 18003KT M01/M04 A3005 RMK A01 T10131042  RH  081%=      5-min Rain = 0
KDO1 160917Z 18003KT M01/M04 A3005 RMK A01 T10131042  RH  080%=      5-min Rain = 0
KDO1 160918Z 18003KT M01/M04 A3005 RMK A01 T10131042  RH  081%=      5-min Rain = 0
KDO1 160919Z 18003KT M01/M04 A3005 RMK A01 T10131042  RH  080%=      5-min Rain = 0
KDO1 160920Z 19003KT M01/M04 A3005 RMK A01 T10131042  RH  081%=      5-min Rain = 0
KDO1 160921Z 19002KT M01/M04 A3004 RMK A01 T10131042  RH  081%=      5-min Rain = 0
KDO1 160922Z 19002KT M01/M04 A3004 RMK A01 T10131042  RH  081%=      5-min Rain = 0
KDO1 160923Z 21002KT M01/M04 A3004 RMK A01 T10141042  RH  081%=      5-min Rain = 0
KDO1 160924Z 21002KT M02/M04 A3004 RMK A01 T10151043  RH  081%=      5-min Rain = 0
KDO1 160925Z 21002KT M02/M04 A3004 RMK A01 T10151043  RH  081%=      5-min Rain = 0
KDO1 160926Z 21002KT M02/M04 A3004 RMK A01 T10151042  RH  082%=      5-min Rain = 0
KDO1 160927Z 22002KT M02/M04 A3004 RMK A01 T10151042  RH  082%=      5-min Rain = 0
KDO1 160928Z 22002KT M02/M04 A3004 RMK A01 T10151042  RH  082%=      5-min Rain = 0
KDO1 160929Z 23002KT M02/M04 A3004 RMK A01 T10151042  RH  082%=      5-min Rain = 0
KDO1 160930Z 24002KT M02/M04 A3004 RMK A01 T10151042  RH  082%=      5-min Rain = 0
KDO1 160931Z 25002KT M02/M04 A3004 RMK A01 T10151041  RH  082%=      5-min Rain = 0
KDO1 160932Z 25002KT M02/M04 A3004 RMK A01 T10151041  RH  083%=      5-min Rain = 0
KDO1 160933Z 25002KT M02/M04 A3004 RMK A01 T10161041  RH  083%=      5-min Rain = 0
KDO1 160934Z 25003KT M02/M04 A3004 RMK A01 T10151041  RH  083%=      5-min Rain = 0
KDO1 160935Z 24003KT M02/M04 A3004 RMK A01 T10151040  RH  083%=      5-min Rain = 0
KDO1 160936Z 25003KT M02/M04 A3004 RMK A01 T10151040  RH  083%=      5-min Rain = 0
KDO1 160937Z 25003KT M02/M04 A3004 RMK A01 T10151040  RH  083%=      5-min Rain = 0
KDO1 160938Z 25003KT M01/M04 A3004 RMK A01 T10141039  RH  084%=      5-min Rain = 0
KDO1 160939Z 25003KT M01/M04 A3004 RMK A01 T10141038  RH  084%=      5-min Rain = 0
KDO1 160940Z 25003KT M01/M04 A3004 RMK A01 T10131038  RH  083%=      5-min Rain = 0
KDO1 160941Z 26003KT M01/M04 A3004 RMK A01 T10131038  RH  083%=      5-min Rain = 0
KDO1 160942Z 25003KT M01/M04 A3004 RMK A01 T10121037  RH  083%=      5-min Rain = 0
KDO1 160943Z 25003KT M01/M04 A3004 RMK A01 T10121037  RH  083%=      5-min Rain = 0
KDO1 160944Z 25003KT M01/M04 A3004 RMK A01 T10111036  RH  083%=      5-min Rain = 0
KDO1 160945Z 25003KT M01/M04 A3004 RMK A01 T10101036  RH  083%=      5-min Rain = 0
KDO1 160946Z 25002KT M01/M04 A3004 RMK A01 T10091035  RH  083%=      5-min Rain = 0
KDO1 160947Z 25002KT M01/M03 A3004 RMK A01 T10081034  RH  083%=      5-min Rain = 0
KDO1 160948Z 25002KT M01/M03 A3004 RMK A01 T10081034  RH  083%=      5-min Rain = 0
KDO1 160949Z 24002KT M01/M03 A3004 RMK A01 T10081033  RH  083%=      5-min Rain = 0
KDO1 160950Z 24002KT M01/M03 A3004 RMK A01 T10071033  RH  083%=      5-min Rain = 0
KDO1 160951Z 24001KT M01/M03 A3004 RMK A01 T10071033  RH  082%=      5-min Rain = 0
KDO1 160952Z 24001KT M01/M03 A3004 RMK A01 T10071034  RH  082%=      5-min Rain = 0
KDO1 160953Z 24001KT M01/M04 A3004 RMK A01 T10081036  RH  082%=      5-min Rain = 0
KDO1 160954Z 24001KT M01/M04 A3004 RMK A01 T10101037  RH  082%=      5-min Rain = 0
KDO1 160955Z 24002KT M01/M04 A3004 RMK A01 T10121039  RH  082%=      5-min Rain = 0
KDO1 160956Z 24002KT M01/M04 A3003 RMK A01 T10131040  RH  082%=      5-min Rain = 0
KDO1 160957Z 24001KT M01/M04 A3003 RMK A01 T10141040  RH  082%=      5-min Rain = 0
KDO1 160958Z 24001KT M01/M04 A3003 RMK A01 T10141040  RH  083%=      5-min Rain = 0
KDO1 160959Z 24001KT M01/M04 A3003 RMK A01 T10141039  RH  083%=      5-min Rain = 0
KDO1 161000Z 23001KT M01/M04 A3003 RMK A01 T10141039  RH  083%=      5-min Rain = 0
KDO1 161001Z 23001KT M02/M04 A3003 RMK A01 T10151040  RH  083%=      5-min Rain = 0
KDO1 161002Z 23001KT M01/M04 A3003 RMK A01 T10141039  RH  083%=      5-min Rain = 0
KDO1 161003Z 23001KT M01/M04 A3003 RMK A01 T10141038  RH  084%=      5-min Rain = 0
KDO1 161004Z 23000KT M01/M04 A3003 RMK A01 T10141038  RH  084%=      5-min Rain = 0
KDO1 161005Z 23000KT M01/M04 A3003 RMK A01 T10141037  RH  084%=      5-min Rain = 0
KDO1 161006Z 00000KT M01/M04 A3003 RMK A01 T10131036  RH  084%=      5-min Rain = 0
KDO1 161007Z 00000KT M01/M04 A3003 RMK A01 T10121036  RH  084%=      5-min Rain = 0
KDO1 161008Z 00000KT M01/M04 A3003 RMK A01 T10121035  RH  084%=      5-min Rain = 0
KDO1 161009Z 00000KT M01/M04 A3003 RMK A01 T10111035  RH  084%=      5-min Rain = 0
KDO1 161010Z 00000KT M01/M04 A3003 RMK A01 T10111036  RH  084%=      5-min Rain = 0
KDO1 161011Z 00000KT M01/M04 A3003 RMK A01 T10111035  RH  084%=      5-min Rain = 0
KDO1 161012Z 00000KT M01/M04 A3003 RMK A01 T10111035  RH  084%=      5-min Rain = 0
KDO1 161013Z 00000KT M01/M03 A3003 RMK A01 T10111034  RH  084%=      5-min Rain = 0
KDO1 161014Z 00000KT M01/M03 A3003 RMK A01 T10101034  RH  084%=      5-min Rain = 0
KDO1 161015Z 00000KT M01/M03 A3003 RMK A01 T10101034  RH  084%=      5-min Rain = 0
KDO1 161016Z 36001KT M01/M03 A3003 RMK A01 T10101034  RH  084%=      5-min Rain = 0
KDO1 161017Z 00001KT M01/M03 A3003 RMK A01 T10101033  RH  084%=      5-min Rain = 0
KDO1 161018Z 00000KT M01/M03 A3003 RMK A01 T10101033  RH  084%=      5-min Rain = 0
KDO1 161019Z 00000KT M01/M03 A3003 RMK A01 T10111034  RH  084%=      5-min Rain = 0
KDO1 161020Z 00000KT M01/M03 A3003 RMK A01 T10111034  RH  084%=      5-min Rain = 0
KDO1 161021Z 00000KT M01/M03 A3003 RMK A01 T10111034  RH  084%=      5-min Rain = 0
KDO1 161022Z 00000KT M01/M03 A3003 RMK A01 T10111034  RH  084%=      5-min Rain = 0
KDO1 161023Z 00000KT M01/M03 A3003 RMK A01 T10111034  RH  084%=      5-min Rain = 0
KDO1 161024Z 00000KT M01/M04 A3003 RMK A01 T10121035  RH  084%=      5-min Rain = 0
KDO1 161025Z 00000KT M01/M04 A3003 RMK A01 T10121035  RH  084%=      5-min Rain = 0
KDO1 161026Z 00000KT M01/M04 A3003 RMK A01 T10121035  RH  084%=      5-min Rain = 0
KDO1 161027Z 00000KT M01/M03 A3003 RMK A01 T10111034  RH  085%=      5-min Rain = 0
KDO1 161028Z 33001KT M01/M03 A3003 RMK A01 T10121034  RH  085%=      5-min Rain = 0
KDO1 161029Z 33001KT M01/M03 A3003 RMK A01 T10121034  RH  085%=      5-min Rain = 0
KDO1 161030Z 33001KT M01/M03 A3003 RMK A01 T10121034  RH  085%=      5-min Rain = 0
KDO1 161031Z 33001KT M01/M03 A3003 RMK A01 T10121034  RH  085%=      5-min Rain = 0
KDO1 161032Z 34000KT M01/M03 A3003 RMK A01 T10121034  RH  085%=      5-min Rain = 0
KDO1 161033Z 00000KT M01/M03 A3003 RMK A01 T10121033  RH  085%=      5-min Rain = 0
KDO1 161034Z 00000KT M01/M03 A3003 RMK A01 T10111033  RH  085%=      5-min Rain = 0
KDO1 161035Z 00000KT M01/M03 A3003 RMK A01 T10111033  RH  085%=      5-min Rain = 0
KDO1 161036Z 00000KT M01/M03 A3003 RMK A01 T10111033  RH  085%=      5-min Rain = 0
KDO1 161037Z 00000KT M01/M03 A3003 RMK A01 T10111033  RH  085%=      5-min Rain = 0
KDO1 161038Z 00000KT M01/M03 A3003 RMK A01 T10111033  RH  085%=      5-min Rain = 0
KDO1 161039Z 00000KT M01/M03 A3003 RMK A01 T10111033  RH  085%=      5-min Rain = 0
KDO1 161040Z 00000KT M01/M03 A3003 RMK A01 T10111033  RH  085%=      5-min Rain = 0
KDO1 161041Z 00000KT M01/M03 A3003 RMK A01 T10101032  RH  085%=      5-min Rain = 0
KDO1 161042Z 00000KT M01/M03 A3003 RMK A01 T10101032  RH  085%=      5-min Rain = 0
KDO1 161043Z 00000KT M01/M03 A3002 RMK A01 T10091032  RH  085%=      5-min Rain = 0
KDO1 161044Z 00000KT M01/M03 A3002 RMK A01 T10091032  RH  085%=      5-min Rain = 0
KDO1 161045Z 00000KT M01/M03 A3002 RMK A01 T10091032  RH  085%=      5-min Rain = 0
KDO1 161046Z 00000KT M01/M03 A3002 RMK A01 T10091031  RH  085%=      5-min Rain = 0
KDO1 161047Z 23001KT M01/M03 A3002 RMK A01 T10091031  RH  085%=      5-min Rain = 0
KDO1 161048Z 22001KT M01/M03 A3002 RMK A01 T10091032  RH  084%=      5-min Rain = 0
KDO1 161049Z 22001KT M01/M03 A3002 RMK A01 T10081032  RH  084%=      5-min Rain = 0
KDO1 161050Z 21001KT M01/M03 A3002 RMK A01 T10081032  RH  084%=      5-min Rain = 0
KDO1 161051Z 20002KT M01/M03 A3002 RMK A01 T10081031  RH  084%=      5-min Rain = 0
KDO1 161052Z 19002KT M01/M03 A3002 RMK A01 T10071030  RH  084%=      5-min Rain = 0
KDO1 161053Z 18001KT M01/M03 A3002 RMK A01 T10061030  RH  084%=      5-min Rain = 0
KDO1 161054Z 17001KT M01/M03 A3002 RMK A01 T10061030  RH  084%=      5-min Rain = 0
KDO1 161055Z 17001KT M01/M03 A3002 RMK A01 T10061030  RH  084%=      5-min Rain = 0
KDO1 161056Z 17001KT M01/M03 A3002 RMK A01 T10071031  RH  083%=      5-min Rain = 0
KDO1 161057Z 18001KT M01/M03 A3002 RMK A01 T10081032  RH  083%=      5-min Rain = 0
KDO1 161058Z 18001KT M01/M03 A3002 RMK A01 T10091033  RH  083%=      5-min Rain = 0
KDO1 161059Z 20001KT M01/M03 A3002 RMK A01 T10101034  RH  084%=      5-min Rain = 0
KDO1 161100Z 19001KT M01/M04 A3002 RMK A01 T10111035  RH  084%=      5-min Rain = 0
KDO1 161101Z 19002KT M01/M04 A3002 RMK A01 T10121035  RH  084%=      5-min Rain = 0
KDO1 161102Z 18002KT M01/M04 A3002 RMK A01 T10141037  RH  084%=      5-min Rain = 0
KDO1 161103Z 19002KT M02/M04 A3002 RMK A01 T10151037  RH  085%=      5-min Rain = 0
KDO1 161104Z 19002KT M02/M04 A3002 RMK A01 T10161038  RH  085%=      5-min Rain = 0
KDO1 161105Z 19002KT M02/M04 A3002 RMK A01 T10171039  RH  085%=      5-min Rain = 0
KDO1 161106Z 19002KT M02/M04 A3002 RMK A01 T10181039  RH  085%=      5-min Rain = 0
KDO1 161107Z 19002KT M02/M04 A3002 RMK A01 T10181040  RH  085%=      5-min Rain = 0
KDO1 161108Z 20002KT M02/M04 A3002 RMK A01 T10191040  RH  086%=      5-min Rain = 0
KDO1 161109Z 20002KT M02/M04 A3002 RMK A01 T10201041  RH  086%=      5-min Rain = 0
KDO1 161110Z 20002KT M02/M04 A3002 RMK A01 T10211041  RH  086%=      5-min Rain = 0
KDO1 161111Z 19002KT M02/M04 A3002 RMK A01 T10211041  RH  086%=      5-min Rain = 0
KDO1 161112Z 19002KT M02/M04 A3002 RMK A01 T10211040  RH  087%=      5-min Rain = 0
KDO1 161113Z 19002KT M02/M04 A3002 RMK A01 T10221041  RH  087%=      5-min Rain = 0
KDO1 161114Z 20002KT M02/M04 A3002 RMK A01 T10221041  RH  087%=      5-min Rain = 0
KDO1 161115Z 20002KT M02/M04 A3002 RMK A01 T10221040  RH  087%=      5-min Rain = 0
KDO1 161116Z 22002KT M02/M04 A3002 RMK A01 T10221040  RH  087%=      5-min Rain = 0
KDO1 161117Z 22002KT M02/M04 A3001 RMK A01 T10221040  RH  087%=      5-min Rain = 0
KDO1 161118Z 22002KT M02/M04 A3001 RMK A01 T10221040  RH  087%=      5-min Rain = 0
KDO1 161119Z 22001KT M02/M04 A3001 RMK A01 T10221040  RH  088%=      5-min Rain = 0
KDO1 161120Z 22001KT M02/M04 A3001 RMK A01 T10211039  RH  088%=      5-min Rain = 0
KDO1 161121Z 21001KT M02/M04 A3001 RMK A01 T10211038  RH  088%=      5-min Rain = 0
KDO1 161122Z 21001KT M02/M04 A3001 RMK A01 T10201038  RH  088%=      5-min Rain = 0
KDO1 161123Z 19000KT M02/M04 A3001 RMK A01 T10191037  RH  088%=      5-min Rain = 0
KDO1 161124Z 18001KT M02/M04 A3001 RMK A01 T10201038  RH  087%=      5-min Rain = 0
KDO1 161125Z 19000KT M02/M04 A3001 RMK A01 T10201038  RH  087%=      5-min Rain = 0
KDO1 161126Z 19001KT M02/M04 A3001 RMK A01 T10201038  RH  087%=      5-min Rain = 0
KDO1 161127Z 19001KT M02/M04 A3001 RMK A01 T10201038  RH  087%=      5-min Rain = 0
KDO1 161128Z 20000KT M02/M04 A3001 RMK A01 T10201038  RH  087%=      5-min Rain = 0
KDO1 161129Z 00000KT M02/M04 A3001 RMK A01 T10191038  RH  087%=      5-min Rain = 0
KDO1 161130Z 00000KT M02/M04 A3001 RMK A01 T10191037  RH  087%=      5-min Rain = 0
KDO1 161131Z 00000KT M02/M04 A3001 RMK A01 T10191037  RH  087%=      5-min Rain = 0
KDO1 161132Z 00000KT M02/M04 A3001 RMK A01 T10191037  RH  087%=      5-min Rain = 0
KDO1 161133Z 00000KT M02/M04 A3001 RMK A01 T10181037  RH  087%=      5-min Rain = 0
KDO1 161134Z 00000KT M02/M04 A3001 RMK A01 T10181037  RH  087%=      5-min Rain = 0
KDO1 161135Z 00000KT M02/M04 A3001 RMK A01 T10181037  RH  087%=      5-min Rain = 0
KDO1 161136Z 00000KT M02/M04 A3001 RMK A01 T10181037  RH  087%=      5-min Rain = 0
KDO1 161137Z 16000KT M02/M04 A3001 RMK A01 T10191038  RH  087%=      5-min Rain = 0
KDO1 161138Z 16000KT M02/M04 A3001 RMK A01 T10201039  RH  087%=      5-min Rain = 0
KDO1 161139Z 00000KT M02/M04 A3001 RMK A01 T10211040  RH  087%=      5-min Rain = 0
KDO1 161140Z 18000KT M02/M04 A3001 RMK A01 T10211041  RH  087%=      5-min Rain = 0
KDO1 161141Z 17001KT M02/M04 A3002 RMK A01 T10221041  RH  087%=      5-min Rain = 0
KDO1 161142Z 18001KT M02/M04 A3002 RMK A01 T10221041  RH  087%=      5-min Rain = 0
KDO1 161143Z 18002KT M02/M04 A3002 RMK A01 T10231041  RH  087%=      5-min Rain = 0
KDO1 161144Z 17002KT M02/M04 A3002 RMK A01 T10231042  RH  087%=      5-min Rain = 0
KDO1 161145Z 15002KT M02/M04 A3002 RMK A01 T10241042  RH  087%=      5-min Rain = 0
KDO1 161146Z 14003KT M02/M04 A3002 RMK A01 T10241042  RH  087%=      5-min Rain = 0
KDO1 161147Z 14004KT M03/M04 A3002 RMK A01 T10251044  RH  087%=      5-min Rain = 0
KDO1 161148Z 14004KT M03/M05 A3002 RMK A01 T10271046  RH  087%=      5-min Rain = 0
KDO1 161149Z 14004KT M03/M05 A3002 RMK A01 T10301050  RH  086%=      5-min Rain = 0
KDO1 161150Z 14003KT M03/M05 A3002 RMK A01 T10321052  RH  086%=      5-min Rain = 0
KDO1 161151Z 15003KT M03/M05 A3002 RMK A01 T10341054  RH  086%=      5-min Rain = 0
KDO1 161152Z 14003KT M04/M06 A3002 RMK A01 T10351055  RH  087%=      5-min Rain = 0
KDO1 161153Z 15003KT M04/M06 A3002 RMK A01 T10361055  RH  087%=      5-min Rain = 0
KDO1 161154Z 15003KT M04/M05 A3002 RMK A01 T10361054  RH  087%=      5-min Rain = 0
KDO1 161155Z 15003KT M04/M05 A3002 RMK A01 T10361054  RH  088%=      5-min Rain = 0
KDO1 161156Z 15003KT M04/M05 A3002 RMK A01 T10361054  RH  088%=      5-min Rain = 0
KDO1 161157Z 15003KT M04/M05 A3002 RMK A01 T10361054  RH  088%=      5-min Rain = 0
KDO1 161158Z 16002KT M04/M05 A3002 RMK A01 T10361054  RH  088%=      5-min Rain = 0
KDO1 161159Z 16001KT M04/M05 A3002 RMK A01 T10361054  RH  088%=      5-min Rain = 0
KDO1 161200Z 17001KT M04/M05 A3002 RMK A01 T10361054  RH  088%=      5-min Rain = 0
KDO1 161201Z 18001KT M04/M05 A3002 RMK A01 T10361054  RH  088%=      5-min Rain = 0
KDO1 161202Z 18001KT M04/M05 A3002 RMK A01 T10361054  RH  088%=      5-min Rain = 0
KDO1 161203Z 18001KT M04/M05 A3002 RMK A01 T10371054  RH  088%=      5-min Rain = 0
KDO1 161204Z 00000KT M04/M06 A3002 RMK A01 T10371055  RH  088%=      5-min Rain = 0
KDO1 161205Z 00000KT M04/M05 A3002 RMK A01 T10371054  RH  088%=      5-min Rain = 0
KDO1 161206Z 18000KT M04/M05 A3002 RMK A01 T10371054  RH  088%=      5-min Rain = 0
KDO1 161207Z 00000KT M04/M05 A3002 RMK A01 T10371054  RH  088%=      5-min Rain = 0
KDO1 161208Z 00000KT M04/M05 A3002 RMK A01 T10371054  RH  088%=      5-min Rain = 0
KDO1 161209Z 00000KT M04/M05 A3001 RMK A01 T10371054  RH  088%=      5-min Rain = 0
KDO1 161210Z 00000KT M04/M05 A3001 RMK A01 T10371053  RH  088%=      5-min Rain = 0
KDO1 161211Z 00000KT M04/M05 A3001 RMK A01 T10361052  RH  088%=      5-min Rain = 0
KDO1 161212Z 00000KT M04/M05 A3001 RMK A01 T10361052  RH  088%=      5-min Rain = 0
KDO1 161213Z 00000KT M04/M05 A3001 RMK A01 T10351052  RH  088%=      5-min Rain = 0
KDO1 161214Z 00000KT M04/M05 A3001 RMK A01 T10351051  RH  088%=      5-min Rain = 0
KDO1 161215Z 01000KT M03/M05 A3001 RMK A01 T10341050  RH  089%=      5-min Rain = 0
KDO1 161216Z 02001KT M03/M05 A3001 RMK A01 T10341050  RH  088%=      5-min Rain = 0
KDO1 161217Z 02001KT M03/M05 A3001 RMK A01 T10341050  RH  088%=      5-min Rain = 0
KDO1 161218Z 00000KT M03/M05 A3001 RMK A01 T10331050  RH  088%=      5-min Rain = 0
KDO1 161219Z 00000KT M03/M05 A3001 RMK A01 T10341050  RH  088%=      5-min Rain = 0
KDO1 161220Z 00000KT M03/M05 A3001 RMK A01 T10341051  RH  088%=      5-min Rain = 0
KDO1 161221Z 00000KT M03/M05 A3001 RMK A01 T10341051  RH  088%=      5-min Rain = 0
KDO1 161222Z 00000KT M03/M05 A3001 RMK A01 T10341051  RH  088%=      5-min Rain = 0
KDO1 161223Z 19000KT M03/M05 A3001 RMK A01 T10341051  RH  088%=      5-min Rain = 0
KDO1 161224Z 19000KT M03/M05 A3001 RMK A01 T10341051  RH  088%=      5-min Rain = 0
KDO1 161225Z 00000KT M03/M05 A3001 RMK A01 T10341051  RH  088%=      5-min Rain = 0
KDO1 161226Z 21000KT M03/M05 A3001 RMK A01 T10341051  RH  088%=      5-min Rain = 0
KDO1 161227Z 20001KT M03/M05 A3001 RMK A01 T10341050  RH  088%=      5-min Rain = 0
KDO1 161228Z 20002KT M03/M05 A3001 RMK A01 T10341050  RH  089%=      5-min Rain = 0
KDO1 161229Z 20002KT M03/M05 A3001 RMK A01 T10331049  RH  089%=      5-min Rain = 0
KDO1 161230Z 20002KT M03/M05 A3001 RMK A01 T10331049  RH  089%=      5-min Rain = 0
KDO1 161231Z 22002KT M03/M05 A3001 RMK A01 T10331048  RH  089%=      5-min Rain = 0
KDO1 161232Z 22001KT M03/M05 A3001 RMK A01 T10321048  RH  089%=      5-min Rain = 0
KDO1 161233Z 22002KT M03/M05 A3001 RMK A01 T10311047  RH  089%=      5-min Rain = 0
KDO1 161234Z 21001KT M03/M05 A3001 RMK A01 T10311046  RH  089%=      5-min Rain = 0
KDO1 161235Z 21001KT M03/M05 A3001 RMK A01 T10301045  RH  089%=      5-min Rain = 0
KDO1 161236Z 20001KT M03/M05 A3001 RMK A01 T10301045  RH  089%=      5-min Rain = 0
KDO1 161237Z 19001KT M03/M05 A3001 RMK A01 T10291045  RH  089%=      5-min Rain = 0
KDO1 161238Z 18002KT M03/M04 A3001 RMK A01 T10291044  RH  089%=      5-min Rain = 0
KDO1 161239Z 18002KT M03/M05 A3001 RMK A01 T10291045  RH  089%=      5-min Rain = 0
KDO1 161240Z 18002KT M03/M05 A3001 RMK A01 T10291045  RH  089%=      5-min Rain = 0
KDO1 161241Z 17002KT M03/M05 A3001 RMK A01 T10291045  RH  089%=      5-min Rain = 0
KDO1 161242Z 15002KT M03/M05 A3001 RMK A01 T10291045  RH  089%=      5-min Rain = 0
KDO1 161243Z 17002KT M03/M05 A3001 RMK A01 T10291046  RH  089%=      5-min Rain = 0
KDO1 161244Z 18002KT M03/M05 A3001 RMK A01 T10301047  RH  088%=      5-min Rain = 0
KDO1 161245Z 19002KT M03/M05 A3001 RMK A01 T10311048  RH  088%=      5-min Rain = 0
KDO1 161246Z 20001KT M03/M05 A3001 RMK A01 T10321049  RH  088%=      5-min Rain = 0
KDO1 161247Z 20001KT M03/M05 A3001 RMK A01 T10331050  RH  088%=      5-min Rain = 0
KDO1 161248Z 18000KT M03/M05 A3001 RMK A01 T10341051  RH  088%=      5-min Rain = 0
KDO1 161249Z 18001KT M03/M05 A3001 RMK A01 T10341051  RH  088%=      5-min Rain = 0
KDO1 161250Z 18001KT M04/M05 A3001 RMK A01 T10351051  RH  089%=      5-min Rain = 0
KDO1 161251Z 18001KT M04/M05 A30 RMK A01 T10351051  RH  089%=      5-min Rain = 0
KDO1 161252Z 19001KT M04/M05 A30 RMK A01 T10351051  RH  089%=      5-min Rain = 0
KDO1 161253Z 19001KT M04/M05 A30 RMK A01 T10351051  RH  089%=      5-min Rain = 0
KDO1 161254Z 21002KT M04/M05 A30 RMK A01 T10351051  RH  089%=      5-min Rain = 0
KDO1 161255Z 22002KT M04/M05 A3001 RMK A01 T10351051  RH  089%=      5-min Rain = 0
KDO1 161256Z 23002KT M04/M05 A3001 RMK A01 T10351050  RH  089%=      5-min Rain = 0
KDO1 161257Z 23002KT M03/M05 A3001 RMK A01 T10331048  RH  090%=      5-min Rain = 0
KDO1 161258Z 23002KT M03/M05 A30 RMK A01 T10321047  RH  090%=      5-min Rain = 0
KDO1 161259Z 22002KT M03/M05 A30 RMK A01 T10311046  RH  090%=      5-min Rain = 0
KDO1 161300Z 22002KT M03/M05 A30 RMK A01 T10311046  RH  089%=      5-min Rain = 0
KDO1 161301Z 20001KT M03/M05 A30 RMK A01 T10301045  RH  089%=      5-min Rain = 0
KDO1 161302Z 20001KT M03/M05 A30 RMK A01 T10301045  RH  089%=      5-min Rain = 0
KDO1 161303Z 19001KT M03/M05 A30 RMK A01 T10291045  RH  089%=      5-min Rain = 0
KDO1 161304Z 19001KT M03/M05 A30 RMK A01 T10291045  RH  089%=      5-min Rain = 0
KDO1 161305Z 19001KT M03/M05 A30 RMK A01 T10291045  RH  089%=      5-min Rain = 0
KDO1 161306Z 19002KT M03/M05 A30 RMK A01 T10301046  RH  088%=      5-min Rain = 0
KDO1 161307Z 18002KT M03/M05 A30 RMK A01 T10301047  RH  088%=      5-min Rain = 0
KDO1 161308Z 18002KT M03/M05 A30 RMK A01 T10301047  RH  088%=      5-min Rain = 0
KDO1 161309Z 19002KT M03/M05 A30 RMK A01 T10311047  RH  088%=      5-min Rain = 0
KDO1 161310Z 20002KT M03/M05 A3001 RMK A01 T10311048  RH  088%=      5-min Rain = 0
KDO1 161311Z 20002KT M03/M05 A3001 RMK A01 T10321049  RH  088%=      5-min Rain = 0
KDO1 161312Z 21002KT M03/M05 A3001 RMK A01 T10321049  RH  088%=      5-min Rain = 0
KDO1 161313Z 22002KT M03/M05 A30 RMK A01 T10331050  RH  088%=      5-min Rain = 0
KDO1 161314Z 22002KT M03/M05 A30 RMK A01 T10331050  RH  088%=      5-min Rain = 0
KDO1 161315Z 22002KT M03/M05 A30 RMK A01 T10331050  RH  089%=      5-min Rain = 0
KDO1 161316Z 22002KT M03/M05 A30 RMK A01 T10341050  RH  089%=      5-min Rain = 0
KDO1 161317Z 21002KT M03/M05 A30 RMK A01 T10341050  RH  089%=      5-min Rain = 0
KDO1 161318Z 21002KT M03/M05 A30 RMK A01 T10341050  RH  089%=      5-min Rain = 0
KDO1 161319Z 21001KT M03/M05 A30 RMK A01 T10341049  RH  089%=      5-min Rain = 0
KDO1 161320Z 21001KT M03/M05 A3001 RMK A01 T10341049  RH  089%=      5-min Rain = 0
KDO1 161321Z 21001KT M03/M05 A3001 RMK A01 T10341049  RH  089%=      5-min Rain = 0
KDO1 161322Z 22001KT M03/M05 A30 RMK A01 T10331049  RH  089%=      5-min Rain = 0
KDO1 161323Z 23001KT M03/M05 A30 RMK A01 T10331048  RH  089%=      5-min Rain = 0
KDO1 161324Z 24001KT M03/M05 A30 RMK A01 T10321047  RH  090%=      5-min Rain = 0
KDO1 161325Z 25001KT M03/M05 A30 RMK A01 T10321046  RH  090%=      5-min Rain = 0
KDO1 161326Z 23001KT M03/M05 A30 RMK A01 T10311046  RH  089%=      5-min Rain = 0
KDO1 161327Z 23001KT M03/M05 A30 RMK A01 T10311046  RH  089%=      5-min Rain = 0
KDO1 161328Z 22002KT M03/M05 A30 RMK A01 T10311046  RH  089%=      5-min Rain = 0
KDO1 161329Z 21002KT M03/M05 A30 RMK A01 T10311046  RH  089%=      5-min Rain = 0
KDO1 161330Z 20002KT M03/M05 A30 RMK A01 T10301045  RH  089%=      5-min Rain = 0
KDO1 161331Z 19002KT M03/M05 A30 RMK A01 T10301045  RH  089%=      5-min Rain = 0
KDO1 161332Z 18002KT M03/M04 A30 RMK A01 T10291044  RH  089%=      5-min Rain = 0
KDO1 161333Z 17002KT M03/M04 A30 RMK A01 T10291044  RH  089%=      5-min Rain = 0
KDO1 161334Z 16002KT M03/M04 A30 RMK A01 T10281043  RH  089%=      5-min Rain = 0
KDO1 161335Z 16002KT M03/M04 A30 RMK A01 T10281043  RH  089%=      5-min Rain = 0
KDO1 161336Z 15002KT M03/M04 A30 RMK A01 T10281043  RH  089%=      5-min Rain = 0
KDO1 161337Z 14001KT M03/M04 A30 RMK A01 T10271043  RH  089%=      5-min Rain = 0
KDO1 161338Z 14002KT M03/M05 A30 RMK A01 T10281046  RH  087%=      5-min Rain = 0
KDO1 161339Z 13002KT M03/M05 A3001 RMK A01 T10311050  RH  087%=      5-min Rain = 0
KDO1 161340Z 12002KT M03/M05 A3001 RMK A01 T10331052  RH  087%=      5-min Rain = 0
KDO1 161341Z 13002KT M04/M06 A3001 RMK A01 T10361055  RH  087%=      5-min Rain = 0
KDO1 161342Z 13003KT M04/M06 A3001 RMK A01 T10371055  RH  087%=      5-min Rain = 0
KDO1 161343Z 14003KT M04/M06 A3001 RMK A01 T10381055  RH  088%=      5-min Rain = 0
KDO1 161344Z 14003KT M04/M06 A3001 RMK A01 T10381055  RH  088%=      5-min Rain = 0
KDO1 161345Z 14003KT M04/M06 A3001 RMK A01 T10381055  RH  088%=      5-min Rain = 0
KDO1 161346Z 15003KT M04/M06 A3001 RMK A01 T10381055  RH  088%=      5-min Rain = 0
KDO1 161347Z 16001KT M04/M05 A3001 RMK A01 T10381054  RH  088%=      5-min Rain = 0
KDO1 161348Z 17001KT M04/M05 A3001 RMK A01 T10371054  RH  088%=      5-min Rain = 0
KDO1 161349Z 21002KT M04/M05 A3001 RMK A01 T10361053  RH  088%=      5-min Rain = 0
KDO1 161350Z 20002KT M04/M05 A30 RMK A01 T10361052  RH  088%=      5-min Rain = 0
KDO1 161351Z 22002KT M04/M05 A30 RMK A01 T10351052  RH  088%=      5-min Rain = 0
KDO1 161352Z 22002KT M04/M05 A30 RMK A01 T10351051  RH  088%=      5-min Rain = 0
KDO1 161353Z 23001KT M03/M05 A30 RMK A01 T10341050  RH  088%=      5-min Rain = 0
KDO1 161354Z 23001KT M03/M05 A30 RMK A01 T10331049  RH  089%=      5-min Rain = 0
KDO1 161355Z 24001KT M03/M05 A30 RMK A01 T10321047  RH  089%=      5-min Rain = 0
KDO1 161356Z 23001KT M03/M05 A3001 RMK A01 T10301046  RH  089%=      5-min Rain = 0
KDO1 161357Z 23001KT M03/M04 A3001 RMK A01 T10291044  RH  089%=      5-min Rain = 0
KDO1 161358Z 24000KT M03/M04 A3001 RMK A01 T10281044  RH  089%=      5-min Rain = 0
KDO1 161359Z 21000KT M03/M04 A3001 RMK A01 T10271043  RH  089%=      5-min Rain = 0
KDO1 161400Z 21000KT M03/M04 A3001 RMK A01 T10251041  RH  089%=      5-min Rain = 0
KDO1 161401Z 20001KT M02/M04 A3001 RMK A01 T10241040  RH  089%=      5-min Rain = 0
KDO1 161402Z 20001KT M02/M04 A3001 RMK A01 T10231040  RH  088%=      5-min Rain = 0
KDO1 161403Z 21001KT M02/M04 A3001 RMK A01 T10221039  RH  088%=      5-min Rain = 0
KDO1 161404Z 20001KT M02/M04 A3001 RMK A01 T10211038  RH  088%=      5-min Rain = 0
KDO1 161405Z 20002KT M02/M04 A3001 RMK A01 T10211038  RH  088%=      5-min Rain = 0
KDO1 161406Z 20001KT M02/M04 A3001 RMK A01 T10191037  RH  088%=      5-min Rain = 0
KDO1 161407Z 20001KT M02/M04 A3001 RMK A01 T10181036  RH  088%=      5-min Rain = 0
KDO1 161408Z 20001KT M02/M04 A3001 RMK A01 T10181036  RH  088%=      5-min Rain = 0
KDO1 161409Z 22000KT M02/M04 A3001 RMK A01 T10171036  RH  087%=      5-min Rain = 0
KDO1 161410Z 22001KT M02/M04 A3001 RMK A01 T10171036  RH  087%=      5-min Rain = 0
KDO1 161411Z 24000KT M02/M04 A3001 RMK A01 T10171037  RH  087%=      5-min Rain = 0
KDO1 161412Z 25001KT M02/M04 A3001 RMK A01 T10171036  RH  087%=      5-min Rain = 0
KDO1 161413Z 23001KT M02/M04 A3001 RMK A01 T10161036  RH  087%=      5-min Rain = 0
KDO1 161414Z 22000KT M02/M04 A3001 RMK A01 T10161035  RH  087%=      5-min Rain = 0
KDO1 161415Z 23000KT M02/M04 A3001 RMK A01 T10151035  RH  087%=      5-min Rain = 0
KDO1 161416Z 24000KT M02/M03 A3001 RMK A01 T10151034  RH  087%=      5-min Rain = 0
KDO1 161417Z 21000KT M02/M03 A3001 RMK A01 T10151034  RH  087%=      5-min Rain = 0
KDO1 161418Z 21001KT M01/M03 A3001 RMK A01 T10141034  RH  087%=      5-min Rain = 0
KDO1 161419Z 20001KT M01/M03 A3001 RMK A01 T10131033  RH  087%=      5-min Rain = 0
KDO1 161420Z 21000KT M01/M03 A3001 RMK A01 T10131032  RH  087%=      5-min Rain = 0
KDO1 161421Z 20001KT M01/M03 A3001 RMK A01 T10121032  RH  086%=      5-min Rain = 0
KDO1 161422Z 22000KT M01/M03 A3001 RMK A01 T10111031  RH  086%=      5-min Rain = 0
KDO1 161423Z 23001KT M01/M03 A3001 RMK A01 T10101030  RH  086%=      5-min Rain = 0
KDO1 161424Z 24001KT M01/M03 A3001 RMK A01 T10091029  RH  086%=      5-min Rain = 0
KDO1 161425Z 24001KT M01/M03 A3001 RMK A01 T10081029  RH  086%=      5-min Rain = 0
KDO1 161426Z 24000KT M01/M03 A3001 RMK A01 T10071028  RH  086%=      5-min Rain = 0
KDO1 161427Z 00000KT M01/M03 A3001 RMK A01 T10071028  RH  086%=      5-min Rain = 0
KDO1 161428Z 23000KT M01/M03 A3001 RMK A01 T10051026  RH  086%=      5-min Rain = 0
KDO1 161429Z 00000KT M00/M03 A3001 RMK A01 T10041025  RH  086%=      5-min Rain = 0
KDO1 161430Z 00000KT M00/M02 A30 RMK A01 T10031024  RH  086%=      5-min Rain = 0
KDO1 161431Z 00000KT 00/02 A30 RMK A01 T00-00-21  RH  086%=      5-min Rain = 0
KDO1 161432Z 00000KT 00/M02 A30 RMK A01 T00021020  RH  085%=      5-min Rain = 0
KDO1 161433Z 00000KT 00/M02 A30 RMK A01 T00031020  RH  085%=      5-min Rain = 0
KDO1 161434Z 00000KT 00/M02 A30 RMK A01 T00041019  RH  084%=      5-min Rain = 0
KDO1 161435Z 00000KT 01/M02 A30 RMK A01 T00051019  RH  084%=      5-min Rain = 0
KDO1 161436Z 00000KT 01/M02 A30 RMK A01 T00071017  RH  084%=      5-min Rain = 0
KDO1 161437Z 00000KT 01/M02 A30 RMK A01 T00081017  RH  084%=      5-min Rain = 0
KDO1 161438Z 00000KT 01/M02 A30 RMK A01 T00081017  RH  083%=      5-min Rain = 0
KDO1 161439Z 00000KT 01/M02 A30 RMK A01 T00091016  RH  083%=      5-min Rain = 0
KDO1 161440Z 00000KT 01/M02 A30 RMK A01 T00101015  RH  083%=      5-min Rain = 0
KDO1 161441Z 00000KT 01/M01 A30 RMK A01 T00121013  RH  083%=      5-min Rain = 0
KDO1 161442Z 00000KT 01/M01 A30 RMK A01 T00131013  RH  083%=      5-min Rain = 0
KDO1 161443Z 00000KT 02/M01 A30 RMK A01 T00151011  RH  083%=      5-min Rain = 0
KDO1 161444Z 00000KT 02/M01 A30 RMK A01 T00171008  RH  083%=      5-min Rain = 0
KDO1 161445Z 00000KT 02/M01 A30 RMK A01 T00201007  RH  083%=      5-min Rain = 0
KDO1 161446Z 00000KT 02/M01 A30 RMK A01 T00211006  RH  082%=      5-min Rain = 0
KDO1 161447Z 24000KT 02/M01 A30 RMK A01 T00221005  RH  082%=      5-min Rain = 0
KDO1 161448Z 24001KT 02/M00 A30 RMK A01 T00231004  RH  082%=      5-min Rain = 0
KDO1 161449Z 24002KT 02/M00 A30 RMK A01 T00241003  RH  082%=      5-min Rain = 0
KDO1 161450Z 24002KT 03/M00 A30 RMK A01 T00251003  RH  082%=      5-min Rain = 0
KDO1 161451Z 23002KT 03/M00 A30 RMK A01 T00271002  RH  082%=      5-min Rain = 0
KDO1 161452Z 20001KT 03/M00 A30 RMK A01 T00281001  RH  081%=      5-min Rain = 0
KDO1 161453Z 19001KT 03/00 A30 RMK A01 T00300001  RH  081%=      5-min Rain = 0
KDO1 161454Z 20002KT 03/00 A30 RMK A01 T00310002  RH  081%=      5-min Rain = 0
KDO1 161455Z 20000KT 03/00 A30 RMK A01 T00330004  RH  081%=      5-min Rain = 0
KDO1 161456Z 20000KT 04/01 A30 RMK A01 T00350006  RH  081%=      5-min Rain = 0
KDO1 161457Z 22000KT 04/01 A30 RMK A01 T00360007  RH  081%=      5-min Rain = 0
KDO1 161458Z 23000KT 04/01 A30 RMK A01 T00370007  RH  081%=      5-min Rain = 0
KDO1 161459Z 20000KT 04/01 A30 RMK A01 T00380008  RH  081%=      5-min Rain = 0
KDO1 161500Z 21001KT 04/01 A30 RMK A01 T00400009  RH  080%=      5-min Rain = 0
KDO1 161501Z 20001KT 04/01 A30 RMK A01 T00410008  RH  079%=      5-min Rain = 0
KDO1 161502Z 18001KT 04/01 A30 RMK A01 T00410008  RH  079%=      5-min Rain = 0
KDO1 161503Z 21001KT 04/01 A30 RMK A01 T00420010  RH  080%=      5-min Rain = 0
KDO1 161504Z 23002KT 04/01 A30 RMK A01 T00430011  RH  080%=      5-min Rain = 0
KDO1 161505Z 23002KT 04/01 A30 RMK A01 T00430010  RH  079%=      5-min Rain = 0
KDO1 161506Z 19002KT 04/01 A30 RMK A01 T00440011  RH  079%=      5-min Rain = 0
KDO1 161507Z 18002KT 05/01 A30 RMK A01 T00450012  RH  079%=      5-min Rain = 0
KDO1 161508Z 16002KT 05/01 A30 RMK A01 T00470014  RH  079%=      5-min Rain = 0
KDO1 161509Z 16002KT 05/02 A30 RMK A01 T00480015  RH  079%=      5-min Rain = 0
KDO1 161510Z 17002KT 05/02 A30 RMK A01 T00480015  RH  079%=      5-min Rain = 0
KDO1 161511Z 17002KT 05/02 A30 RMK A01 T00480015  RH  079%=      5-min Rain = 0
KDO1 161512Z 18001KT 05/02 A30 RMK A01 T00480016  RH  080%=      5-min Rain = 0
KDO1 161513Z 18001KT 05/02 A30 RMK A01 T00490017  RH  080%=      5-min Rain = 0
KDO1 161514Z 19002KT 05/02 A30 RMK A01 T00510019  RH  080%=      5-min Rain = 0
KDO1 161515Z 20001KT 05/02 A30 RMK A01 T00520019  RH  079%=      5-min Rain = 0
KDO1 161516Z 20002KT 05/02 A30 RMK A01 T00530019  RH  079%=      5-min Rain = 0
KDO1 161517Z 20002KT 05/02 A30 RMK A01 T00540018  RH  078%=      5-min Rain = 0
KDO1 161518Z 20002KT 06/02 A30 RMK A01 T00550019  RH  077%=      5-min Rain = 0
KDO1 161519Z 19002KT 06/02 A30 RMK A01 T00570022  RH  078%=      5-min Rain = 0
KDO1 161520Z 20003KT 06/02 A30 RMK A01 T00590022  RH  077%=      5-min Rain = 0
KDO1 161521Z 19002KT 06/02 A30 RMK A01 T00610023  RH  077%=      5-min Rain = 0
KDO1 161522Z 21001KT 06/02 A30 RMK A01 T00620023  RH  076%=      5-min Rain = 0
KDO1 161523Z 20002KT 06/02 A30 RMK A01 T00630023  RH  075%=      5-min Rain = 0
KDO1 161524Z 20002KT 06/02 A30 RMK A01 T00630024  RH  076%=      5-min Rain = 0
KDO1 161525Z 23005KT 07/03 A30 RMK A01 T00650026  RH  076%=      5-min Rain = 0
KDO1 161526Z 24006KT 07/03 A30 RMK A01 T00680028  RH  076%=      5-min Rain = 0
KDO1 161527Z 25007KT 07/03 A30 RMK A01 T00730027  RH  073%=      5-min Rain = 0
KDO1 161528Z 24006KT 08/03 A30 RMK A01 T00770029  RH  072%=      5-min Rain = 0
KDO1 161529Z 24007KT 08/03 A30 RMK A01 T00800031  RH  071%=      5-min Rain = 0
KDO1 161530Z 25008KT 08/03 A30 RMK A01 T00820031  RH  070%=      5-min Rain = 0
KDO1 161531Z 24008KT 08/03 A30 RMK A01 T00840030  RH  069%=      5-min Rain = 0
KDO1 161532Z 24008KT 09/03 A2999 RMK A01 T00850029  RH  068%=      5-min Rain = 0
KDO1 161533Z 24006KT 09/03 A2999 RMK A01 T00860029  RH  067%=      5-min Rain = 0
KDO1 161534Z 24007KT 09/03 A2999 RMK A01 T00870028  RH  067%=      5-min Rain = 0
KDO1 161535Z 24007KT 09/03 A2999 RMK A01 T00880028  RH  066%=      5-min Rain = 0
KDO1 161536Z 24007KT 09/03 A2999 RMK A01 T00890028  RH  066%=      5-min Rain = 0
KDO1 161537Z 24009KT 09/03 A2999 RMK A01 T00900030  RH  066%=      5-min Rain = 0
KDO1 161538Z 24008KT 09/03 A2999 RMK A01 T00910027  RH  064%=      5-min Rain = 0
KDO1 161539Z 25008KT 09/03 A2999 RMK A01 T00920028  RH  064%=      5-min Rain = 0
KDO1 161540Z 25009KT 09/03 A2999 RMK A01 T00930027  RH  063%=      5-min Rain = 0
KDO1 161541Z 25008KT 09/03 A2999 RMK A01 T00940026  RH  063%=      5-min Rain = 0
KDO1 161542Z 25008KT 10/03 A2999 RMK A01 T00950026  RH  062%=      5-min Rain = 0
KDO1 161543Z 24008KT 10/03 A2999 RMK A01 T00950026  RH  062%=      5-min Rain = 0
KDO1 161544Z 25008KT 10/03 A2999 RMK A01 T00970027  RH  062%=      5-min Rain = 0
KDO1 161545Z 24007KT 10/03 A2999 RMK A01 T00970027  RH  061%=      5-min Rain = 0
KDO1 161546Z 24007KT 10/03 A2999 RMK A01 T00990030  RH  062%=      5-min Rain = 0
KDO1 161547Z 24007KT 10/03 A2999 RMK A01 T01000030  RH  062%=      5-min Rain = 0
KDO1 161548Z 24006KT 10/03 A2999 RMK A01 T01020031  RH  061%=      5-min Rain = 0
KDO1 161549Z 24010KT 10/03 A2999 RMK A01 T01030030  RH  061%=      5-min Rain = 0
KDO1 161550Z 24009KT 10/03 A2999 RMK A01 T01030028  RH  059%=      5-min Rain = 0
KDO1 161551Z 24009KT 10/03 A2999 RMK A01 T01040028  RH  060%=      5-min Rain = 0
KDO1 161552Z 25009KT 10/03 A2999 RMK A01 T01040028  RH  059%=      5-min Rain = 0
KDO1 161553Z 24008KT 11/03 A2999 RMK A01 T01050026  RH  058%=      5-min Rain = 0
KDO1 161554Z 25009KT 11/03 A2999 RMK A01 T01050027  RH  058%=      5-min Rain = 0
KDO1 161555Z 25010KT 11/03 A2999 RMK A01 T01060025  RH  057%=      5-min Rain = 0
KDO1 161556Z 24009KT 11/03 A2999 RMK A01 T01070026  RH  057%=      5-min Rain = 0
KDO1 161557Z 24009KT 11/03 A2999 RMK A01 T01080026  RH  057%=      5-min Rain = 0
KDO1 161558Z 25009KT 11/03 A2999 RMK A01 T01090027  RH  057%=      5-min Rain = 0
KDO1 161559Z 25008KT 11/03 A2999 RMK A01 T01100028  RH  057%=      5-min Rain = 0
KDO1 161600Z 24009KT 11/03 A2999 RMK A01 T01120029  RH  057%=      5-min Rain = 0
KDO1 161601Z 24009KT 11/03 A2999 RMK A01 T01120027  RH  056%=      5-min Rain = 0
KDO1 161602Z 24009KT 11/03 A2999 RMK A01 T01130027  RH  055%=      5-min Rain = 0
KDO1 161603Z 24008KT 11/03 A2999 RMK A01 T01120027  RH  055%=      5-min Rain = 0
KDO1 161604Z 24008KT 11/03 A2999 RMK A01 T01130027  RH  055%=      5-min Rain = 0
KDO1 161605Z 24007KT 11/03 A2999 RMK A01 T01140026  RH  055%=      5-min Rain = 0
KDO1 161606Z 23008KT 11/03 A2999 RMK A01 T01140027  RH  055%=      5-min Rain = 0
KDO1 161607Z 24008KT 12/03 A2999 RMK A01 T01150027  RH  055%=      5-min Rain = 0
KDO1 161608Z 24008KT 12/03 A2999 RMK A01 T01160026  RH  054%=      5-min Rain = 0
KDO1 161609Z 24008KT 12/03 A2999 RMK A01 T01170026  RH  054%=      5-min Rain = 0
KDO1 161610Z 24007KT 12/03 A2999 RMK A01 T01170027  RH  054%=      5-min Rain = 0
KDO1 161611Z 23006KT 12/03 A2999 RMK A01 T01180025  RH  053%=      5-min Rain = 0
KDO1 161612Z 24006KT 12/03 A2999 RMK A01 T01180027  RH  054%=      5-min Rain = 0
KDO1 161613Z 24006KT 12/03 A2999 RMK A01 T01190027  RH  053%=      5-min Rain = 0
KDO1 161614Z 24007KT 12/03 A2999 RMK A01 T01200027  RH  053%=      5-min Rain = 0
KDO1 161615Z 24008KT 12/03 A2999 RMK A01 T01210026  RH  052%=      5-min Rain = 0
KDO1 161616Z 24008KT 12/02 A2999 RMK A01 T01220024  RH  051%=      5-min Rain = 0
KDO1 161617Z 24007KT 12/02 A2999 RMK A01 T01210024  RH  052%=      5-min Rain = 0
KDO1 161618Z 24006KT 12/03 A2999 RMK A01 T01220026  RH  052%=      5-min Rain = 0
KDO1 161619Z 24006KT 12/03 A2999 RMK A01 T01230026  RH  052%=      5-min Rain = 0
KDO1 161620Z 23005KT 12/03 A2999 RMK A01 T01240027  RH  052%=      5-min Rain = 0
KDO1 161621Z 23007KT 13/03 A2999 RMK A01 T01250025  RH  050%=      5-min Rain = 0
KDO1 161622Z 25007KT 13/03 A2999 RMK A01 T01260025  RH  050%=      5-min Rain = 0
KDO1 161623Z 24005KT 13/03 A2999 RMK A01 T01250026  RH  051%=      5-min Rain = 0
KDO1 161624Z 24006KT 13/03 A2999 RMK A01 T01260025  RH  050%=      5-min Rain = 0
KDO1 161625Z 24006KT 13/02 A2999 RMK A01 T01260023  RH  049%=      5-min Rain = 0
KDO1 161626Z 24005KT 13/03 A2999 RMK A01 T01270025  RH  050%=      5-min Rain = 0
KDO1 161627Z 24005KT 13/03 A2999 RMK A01 T01290027  RH  050%=      5-min Rain = 0
KDO1 161628Z 25005KT 13/02 A2999 RMK A01 T01290024  RH  049%=      5-min Rain = 0
KDO1 161629Z 23005KT 13/02 A2999 RMK A01 T01300024  RH  049%=      5-min Rain = 0
KDO1 161630Z 24007KT 13/03 A2999 RMK A01 T01310026  RH  049%=      5-min Rain = 0
KDO1 161631Z 25009KT 13/03 A2999 RMK A01 T01320025  RH  048%=      5-min Rain = 0
KDO1 161632Z 25009KT 13/02 A2999 RMK A01 T01330024  RH  047%=      5-min Rain = 0
KDO1 161633Z 25008KT 14/02 A2999 RMK A01 T01350024  RH  047%=      5-min Rain = 0
KDO1 161634Z 24009KT 14/02 A2999 RMK A01 T01350023  RH  046%=      5-min Rain = 0
KDO1 161635Z 24008KT 14/02 A2999 RMK A01 T01360023  RH  046%=      5-min Rain = 0
KDO1 161636Z 22007KT 14/02 A2999 RMK A01 T01360023  RH  046%=      5-min Rain = 0
KDO1 161637Z 22006KT 14/02 A2999 RMK A01 T01370023  RH  046%=      5-min Rain = 0
KDO1 161638Z 24006KT 14/02 A2999 RMK A01 T01370023  RH  046%=      5-min Rain = 0
KDO1 161639Z 24006KT 14/03 A2999 RMK A01 T01380026  RH  047%=      5-min Rain = 0
KDO1 161640Z 23008KT 14/02 A2999 RMK A01 T01390024  RH  046%=      5-min Rain = 0
KDO1 161641Z 23007KT 14/02 A2999 RMK A01 T01400021  RH  045%=      5-min Rain = 0
KDO1 161642Z 24008KT 14/02 A2999 RMK A01 T01400021  RH  045%=      5-min Rain = 0
KDO1 161643Z 23009KT 14/02 A2999 RMK A01 T01410023  RH  045%=      5-min Rain = 0
KDO1 161644Z 24009KT 14/02 A2999 RMK A01 T01430021  RH  044%=      5-min Rain = 0
KDO1 161645Z 23009KT 14/02 A2999 RMK A01 T01430021  RH  044%=      5-min Rain = 0
KDO1 161646Z 24009KT 14/02 A2998 RMK A01 T01440022  RH  044%=      5-min Rain = 0
KDO1 161647Z 23009KT 15/02 A2998 RMK A01 T01450023  RH  044%=      5-min Rain = 0
KDO1 161648Z 23011KT 15/02 A2998 RMK A01 T01460021  RH  043%=      5-min Rain = 0
KDO1 161649Z 24011KT 15/02 A2998 RMK A01 T01460020  RH  042%=      5-min Rain = 0
KDO1 161650Z 25011KT 15/02 A2998 RMK A01 T01460019  RH  042%=      5-min Rain = 0
KDO1 161651Z 22008KT 15/02 A2998 RMK A01 T01460020  RH  042%=      5-min Rain = 0
KDO1 161652Z 22009KT 15/02 A2998 RMK A01 T01470021  RH  043%=      5-min Rain = 0
KDO1 161653Z 22008KT 15/02 A2998 RMK A01 T01470021  RH  042%=      5-min Rain = 0
KDO1 161654Z 22008KT 15/02 A2998 RMK A01 T01470020  RH  042%=      5-min Rain = 0
KDO1 161655Z 23005KT 15/02 A2998 RMK A01 T01480020  RH  042%=      5-min Rain = 0
KDO1 161656Z 24007KT 15/02 A2998 RMK A01 T01480022  RH  043%=      5-min Rain = 0
KDO1 161657Z 22007KT 15/02 A2998 RMK A01 T01490022  RH  042%=      5-min Rain = 0
KDO1 161658Z 23006KT 15/02 A2998 RMK A01 T01490020  RH  042%=      5-min Rain = 0
KDO1 161659Z 25005KT 15/02 A2998 RMK A01 T01490019  RH  041%=      5-min Rain = 0
KDO1 161700Z 23007KT 15/02 A2998 RMK A01 T01490021  RH  042%=      5-min Rain = 0
KDO1 161701Z 23006KT 15/02 A2998 RMK A01 T01510022  RH  042%=      5-min Rain = 0
KDO1 161702Z 24008KT 15/02 A2998 RMK A01 T01520022  RH  041%=      5-min Rain = 0
KDO1 161703Z 22010KT 15/02 A2998 RMK A01 T01530020  RH  041%=      5-min Rain = 0
KDO1 161704Z 22012KT 15/02 A2998 RMK A01 T01520019  RH  040%=      5-min Rain = 0
KDO1 161705Z 24009KT 15/02 A2998 RMK A01 T01520020  RH  041%=      5-min Rain = 0
KDO1 161706Z 23011KT 15/02 A2998 RMK A01 T01530021  RH  041%=      5-min Rain = 0
KDO1 161707Z 23010KT 15/02 A2998 RMK A01 T01530017  RH  040%=      5-min Rain = 0
KDO1 161708Z 23009KT 15/02 A2998 RMK A01 T01530017  RH  040%=      5-min Rain = 0
KDO1 161709Z 22010KT 15/02 A2998 RMK A01 T01520017  RH  040%=      5-min Rain = 0
KDO1 161710Z 23009KT 15/02 A2998 RMK A01 T01530021  RH  041%=      5-min Rain = 0
KDO1 161711Z 23012KT 16/02 A2998 RMK A01 T01550020  RH  040%=      5-min Rain = 0
KDO1 161712Z 24011KT 16/02 A2998 RMK A01 T01550017  RH  039%=      5-min Rain = 0
KDO1 161713Z 24009KT 16/02 A2998 RMK A01 T01550016  RH  039%=      5-min Rain = 0
KDO1 161714Z 23009KT 15/02 A2998 RMK A01 T01540018  RH  040%=      5-min Rain = 0
KDO1 161715Z 22010KT 16/02 A2998 RMK A01 T01550019  RH  040%=      5-min Rain = 0
KDO1 161716Z 22010KT 16/02 A2998 RMK A01 T01570019  RH  039%=      5-min Rain = 0
KDO1 161717Z 25009KT 16/02 A2998 RMK A01 T01570019  RH  039%=      5-min Rain = 0
KDO1 161718Z 25009KT 16/02 A2998 RMK A01 T01580019  RH  039%=      5-min Rain = 0
KDO1 161719Z 23009KT 16/02 A2997 RMK A01 T01580021  RH  039%=      5-min Rain = 0
KDO1 161720Z 23010KT 16/02 A2997 RMK A01 T01600020  RH  039%=      5-min Rain = 0
KDO1 161721Z 23008KT 16/02 A2997 RMK A01 T01600017  RH  038%=      5-min Rain = 0
KDO1 161722Z 25009KT 16/02 A2997 RMK A01 T01600019  RH  039%=      5-min Rain = 0
KDO1 161723Z 24009KT 16/02 A2997 RMK A01 T01600017  RH  038%=      5-min Rain = 0
KDO1 161724Z 23010KT 16/02 A2997 RMK A01 T01600017  RH  038%=      5-min Rain = 0
KDO1 161725Z 24008KT 16/02 A2997 RMK A01 T01600015  RH  038%=      5-min Rain = 0
KDO1 161726Z 24009KT 16/02 A2997 RMK A01 T01600016  RH  038%=      5-min Rain = 0
KDO1 161727Z 22009KT 16/02 A2997 RMK A01 T01610016  RH  038%=      5-min Rain = 0
KDO1 161728Z 23009KT 16/01 A2997 RMK A01 T01610014  RH  037%=      5-min Rain = 0
KDO1 161729Z 22009KT 16/02 A2997 RMK A01 T01620015  RH  037%=      5-min Rain = 0
KDO1 161730Z 21009KT 17/02 A2997 RMK A01 T01650022  RH  038%=      5-min Rain = 0
KDO1 161731Z 23007KT 17/02 A2997 RMK A01 T01680022  RH  037%=      5-min Rain = 0
KDO1 161732Z 23009G14KT 17/02 A2997 RMK A01 T01680021  RH  037%=      5-min Rain = 0
KDO1 161733Z 22011KT 17/02 A2997 RMK A01 T01690018  RH  036%=      5-min Rain = 0
KDO1 161734Z 23012KT 17/02 A2997 RMK A01 T01690016  RH  036%=      5-min Rain = 0
KDO1 161735Z 23010KT 17/02 A2997 RMK A01 T01680015  RH  036%=      5-min Rain = 0
KDO1 161736Z 22010KT 17/02 A2997 RMK A01 T01670015  RH  036%=      5-min Rain = 0
KDO1 161737Z 23012KT 17/01 A2997 RMK A01 T01670014  RH  036%=      5-min Rain = 0
KDO1 161738Z 22012KT 17/01 A2997 RMK A01 T01670013  RH  035%=      5-min Rain = 0
KDO1 161739Z 23011KT 17/01 A2997 RMK A01 T01660014  RH  036%=      5-min Rain = 0
KDO1 161740Z 24009KT 17/01 A2997 RMK A01 T01670014  RH  036%=      5-min Rain = 0
KDO1 161741Z 22009KT 17/01 A2997 RMK A01 T01670012  RH  035%=      5-min Rain = 0
KDO1 161742Z 22010KT 17/01 A2997 RMK A01 T01680013  RH  035%=      5-min Rain = 0
KDO1 161743Z 20009KT 17/02 A2997 RMK A01 T01700017  RH  036%=      5-min Rain = 0
KDO1 161744Z 22008KT 17/02 A2997 RMK A01 T01710018  RH  036%=      5-min Rain = 0
KDO1 161745Z 23012KT 17/02 A2997 RMK A01 T01720016  RH  035%=      5-min Rain = 0
KDO1 161746Z 22009KT 17/01 A2997 RMK A01 T01720012  RH  034%=      5-min Rain = 0
KDO1 161747Z 22009KT 17/02 A2997 RMK A01 T01710015  RH  035%=      5-min Rain = 0
KDO1 161748Z 22012KT 17/02 A2996 RMK A01 T01720016  RH  035%=      5-min Rain = 0
KDO1 161749Z 22012KT 17/01 A2996 RMK A01 T01730014  RH  034%=      5-min Rain = 0
KDO1 161750Z 21010KT 17/01 A2996 RMK A01 T01730013  RH  034%=      5-min Rain = 0
KDO1 161751Z 22010KT 17/02 A2996 RMK A01 T01740015  RH  034%=      5-min Rain = 0
KDO1 161752Z 23012KT 17/02 A2996 RMK A01 T01740015  RH  034%=      5-min Rain = 0
KDO1 161753Z 23010KT 18/01 A2996 RMK A01 T01750013  RH  034%=      5-min Rain = 0
KDO1 161754Z 22007KT 17/01 A2996 RMK A01 T01740011  RH  033%=      5-min Rain = 0
KDO1 161755Z 20006KT 17/01 A2996 RMK A01 T01740014  RH  034%=      5-min Rain = 0
KDO1 161756Z 20008KT 18/02 A2996 RMK A01 T01750015  RH  034%=      5-min Rain = 0
KDO1 161757Z 20007KT 18/02 A2996 RMK A01 T01760015  RH  034%=      5-min Rain = 0
KDO1 161758Z 21006KT 18/02 A2996 RMK A01 T01770016  RH  034%=      5-min Rain = 0
KDO1 161759Z 22007KT 18/02 A2996 RMK A01 T01790018  RH  034%=      5-min Rain = 0
KDO1 161800Z 22007KT 18/02 A2996 RMK A01 T01790018  RH  034%=      5-min Rain = 0
KDO1 161801Z 21008KT 18/02 A2996 RMK A01 T01800016  RH  033%=      5-min Rain = 0
KDO1 161802Z 21008KT 18/02 A2996 RMK A01 T01800016  RH  033%=      5-min Rain = 0
KDO1 161803Z 20007KT 18/02 A2996 RMK A01 T01800016  RH  033%=      5-min Rain = 0
KDO1 161804Z 20005KT 18/02 A2996 RMK A01 T01810017  RH  033%=      5-min Rain = 0
KDO1 161805Z 20006KT 18/02 A2995 RMK A01 T01820016  RH  033%=      5-min Rain = 0
KDO1 161806Z 21007KT 18/02 A2995 RMK A01 T01830017  RH  033%=      5-min Rain = 0
KDO1 161807Z 22006KT 18/02 A2995 RMK A01 T01830016  RH  033%=      5-min Rain = 0
KDO1 161808Z 24006KT 18/02 A2995 RMK A01 T01830016  RH  033%=      5-min Rain = 0
KDO1 161809Z 22007KT 18/02 A2995 RMK A01 T01840015  RH  032%=      5-min Rain = 0
KDO1 161810Z 22008KT 18/02 A2995 RMK A01 T01830016  RH  033%=      5-min Rain = 0
KDO1 161811Z 21009KT 18/02 A2995 RMK A01 T01840016  RH  032%=      5-min Rain = 0
KDO1 161812Z 23008KT 18/01 A2995 RMK A01 T01840014  RH  032%=      5-min Rain = 0
KDO1 161813Z 23007KT 18/01 A2995 RMK A01 T01840011  RH  031%=      5-min Rain = 0
KDO1 161814Z 20005KT 18/01 A2995 RMK A01 T01840013  RH  032%=      5-min Rain = 0
KDO1 161815Z 20009KT 18/01 A2995 RMK A01 T01840013  RH  032%=      5-min Rain = 0
KDO1 161816Z 20007KT 19/01 A2995 RMK A01 T01860013  RH  031%=      5-min Rain = 0
KDO1 161817Z 24011KT 19/01 A2995 RMK A01 T01870012  RH  031%=      5-min Rain = 0
KDO1 161818Z 23009KT 19/01 A2995 RMK A01 T01890008  RH  030%=      5-min Rain = 0
KDO1 161819Z 23013KT 19/01 A2994 RMK A01 T01900009  RH  030%=      5-min Rain = 0
KDO1 161820Z 24012KT 19/01 A2994 RMK A01 T01900008  RH  030%=      5-min Rain = 0
KDO1 161821Z 22009KT 19/01 A2994 RMK A01 T01910008  RH  029%=      5-min Rain = 0
KDO1 161822Z 20009KT 19/01 A2994 RMK A01 T01920013  RH  030%=      5-min Rain = 0
KDO1 161823Z 21010KT 19/01 A2994 RMK A01 T01940014  RH  030%=      5-min Rain = 0
KDO1 161824Z 18014KT 20/01 A2994 RMK A01 T01950007  RH  028%=      5-min Rain = 0
KDO1 161825Z 23015KT 19/01 A2994 RMK A01 T01940008  RH  029%=      5-min Rain = 0
KDO1 161826Z 23011KT 19/01 A2994 RMK A01 T01940005  RH  028%=      5-min Rain = 0
KDO1 161827Z 21011KT 19/01 A2994 RMK A01 T01930007  RH  029%=      5-min Rain = 0
KDO1 161828Z 20013KT 19/01 A2994 RMK A01 T01930006  RH  028%=      5-min Rain = 0
KDO1 161829Z 20010KT 19/01 A2994 RMK A01 T01930006  RH  028%=      5-min Rain = 0
KDO1 161830Z 21010KT 19/00 A2994 RMK A01 T01930004  RH  028%=      5-min Rain = 0
KDO1 161831Z 22013KT 19/00 A2994 RMK A01 T01930001  RH  027%=      5-min Rain = 0
KDO1 161832Z 20012KT 19/00 A2994 RMK A01 T01930002  RH  028%=      5-min Rain = 0
KDO1 161833Z 20012KT 19/00 A2994 RMK A01 T01940001  RH  027%=      5-min Rain = 0
KDO1 161834Z 20012KT 19/00 A2994 RMK A01 T01930002  RH  028%=      5-min Rain = 0
KDO1 161835Z 20015KT 19/00 A2994 RMK A01 T01930003  RH  028%=      5-min Rain = 0
KDO1 161836Z 20011KT 19/00 A2994 RMK A01 T01930001  RH  028%=      5-min Rain = 0
KDO1 161837Z 20013G18KT 19/00 A2994 RMK A01 T01930001  RH  028%=      5-min Rain = 0
KDO1 161838Z 20014KT 19/00 A2994 RMK A01 T01920001  RH  028%=      5-min Rain = 0
KDO1 161839Z 20011KT 19/00 A2993 RMK A01 T01930003  RH  028%=      5-min Rain = 0
KDO1 161840Z 21010KT 19/00 A2993 RMK A01 T01940004  RH  028%=      5-min Rain = 0
KDO1 161841Z 20013KT 20/00 A2993 RMK A01 T01950004  RH  028%=      5-min Rain = 0
KDO1 161842Z 21013KT 20/00 A2993 RMK A01 T01950004  RH  028%=      5-min Rain = 0
KDO1 161843Z 22013KT 20/M00 A2993 RMK A01 T01961001  RH  027%=      5-min Rain = 0
KDO1 161844Z 22014G19KT 20/M01 A2993 RMK A01 T01951005  RH  026%=      5-min Rain = 0
KDO1 161845Z 21015KT 19/M01 A2993 RMK A01 T01941005  RH  026%=      5-min Rain = 0
KDO1 161846Z 21016KT 19/M00 A2993 RMK A01 T01941003  RH  027%=      5-min Rain = 0
KDO1 161847Z 21015KT 19/M00 A2993 RMK A01 T01941004  RH  026%=      5-min Rain = 0
KDO1 161848Z 21016KT 19/M01 A2993 RMK A01 T01941008  RH  026%=      5-min Rain = 0
KDO1 161849Z 20016KT 19/M01 A2993 RMK A01 T01941007  RH  026%=      5-min Rain = 0
KDO1 161850Z 20015KT 19/M01 A2993 RMK A01 T01931007  RH  026%=      5-min Rain = 0
KDO1 161851Z 20014KT 19/M01 A2993 RMK A01 T01921009  RH  026%=      5-min Rain = 0
KDO1 161852Z 20013KT 19/M01 A2993 RMK A01 T01921005  RH  027%=      5-min Rain = 0
KDO1 161853Z 20014KT 19/M00 A2993 RMK A01 T01921004  RH  027%=      5-min Rain = 0
KDO1 161854Z 19012KT 19/M00 A2992 RMK A01 T01931003  RH  027%=      5-min Rain = 0
KDO1 161855Z 18012KT 19/00 A2992 RMK A01 T01930003  RH  028%=      5-min Rain = 0
KDO1 161856Z 20013KT 20/00 A2992 RMK A01 T01950004  RH  028%=      5-min Rain = 0
KDO1 161857Z 21013KT 20/00 A2992 RMK A01 T01960003  RH  028%=      5-min Rain = 0
KDO1 161858Z 22013KT 20/00 A2992 RMK A01 T01960002  RH  027%=      5-min Rain = 0
KDO1 161859Z 19010KT 20/00 A2992 RMK A01 T01960004  RH  028%=      5-min Rain = 0
KDO1 161900Z 19013KT 20/01 A2992 RMK A01 T01970007  RH  028%=      5-min Rain = 0
KDO1 161901Z 20013KT 20/01 A2992 RMK A01 T01980011  RH  029%=      5-min Rain = 0
KDO1 161902Z 20014KT 20/01 A2992 RMK A01 T02000011  RH  028%=      5-min Rain = 0
KDO1 161903Z 20016KT 20/01 A2992 RMK A01 T02000005  RH  027%=      5-min Rain = 0
KDO1 161904Z 21016KT 20/00 A2992 RMK A01 T01980002  RH  027%=      5-min Rain = 0
KDO1 161905Z 22016KT 20/M00 A2992 RMK A01 T01961004  RH  026%=      5-min Rain = 0
KDO1 161906Z 22010KT 20/M01 A2992 RMK A01 T01951007  RH  026%=      5-min Rain = 0
KDO1 161907Z 21010G16KT 19/M00 A2992 RMK A01 T01941004  RH  026%=      5-min Rain = 0
KDO1 161908Z 20014KT 20/00 A2992 RMK A01 T01960000  RH  027%=      5-min Rain = 0
KDO1 161909Z 21016KT 20/00 A2992 RMK A01 T01970002  RH  027%=      5-min Rain = 0
KDO1 161910Z 20012KT 20/00 A2992 RMK A01 T01980000  RH  027%=      5-min Rain = 0
KDO1 161911Z 22011KT 20/M00 A2992 RMK A01 T01971003  RH  026%=      5-min Rain = 0
KDO1 161912Z 22013KT 20/M00 A2992 RMK A01 T01961004  RH  026%=      5-min Rain = 0
KDO1 161913Z 22012KT 20/M00 A2992 RMK A01 T01951002  RH  027%=      5-min Rain = 0
KDO1 161914Z 20015KT 20/M00 A2992 RMK A01 T01951003  RH  026%=      5-min Rain = 0
KDO1 161915Z 20015KT 20/M00 A2992 RMK A01 T01951002  RH  026%=      5-min Rain = 0
KDO1 161916Z 19011KT 20/M01 A2992 RMK A01 T01951006  RH  026%=      5-min Rain = 0
KDO1 161917Z 21011KT 20/M01 A2991 RMK A01 T01951005  RH  026%=      5-min Rain = 0
KDO1 161918Z 21012KT 20/M00 A2991 RMK A01 T01961004  RH  026%=      5-min Rain = 0
KDO1 161919Z 20011KT 20/M00 A2991 RMK A01 T01971002  RH  026%=      5-min Rain = 0
KDO1 161920Z 19015G22KT 20/00 A2991 RMK A01 T01980000  RH  027%=      5-min Rain = 0
KDO1 161921Z 21014KT 20/00 A2991 RMK A01 T01980004  RH  027%=      5-min Rain = 0
KDO1 161922Z 21014G19KT 20/00 A2991 RMK A01 T01990001  RH  027%=      5-min Rain = 0
KDO1 161923Z 21012KT 20/M00 A2991 RMK A01 T01981004  RH  026%=      5-min Rain = 0
KDO1 161924Z 21011KT 20/M01 A2991 RMK A01 T01961006  RH  026%=      5-min Rain = 0
KDO1 161925Z 21012KT 20/M00 A2991 RMK A01 T01961001  RH  027%=      5-min Rain = 0
KDO1 161926Z 22013KT 20/M00 A2991 RMK A01 T01981002  RH  026%=      5-min Rain = 0
KDO1 161927Z 21010KT 20/00 A2991 RMK A01 T019900-0  RH  026%=      5-min Rain = 0
KDO1 161928Z 21014G20KT 20/00 A2991 RMK A01 T020000-0  RH  026%=      5-min Rain = 0
KDO1 161929Z 20013KT 20/00 A2991 RMK A01 T02000000  RH  026%=      5-min Rain = 0
KDO1 161930Z 20017KT 20/00 A2991 RMK A01 T01990001  RH  026%=      5-min Rain = 0
KDO1 161931Z 20018KT 20/M00 A2991 RMK A01 T01981004  RH  026%=      5-min Rain = 0
KDO1 161932Z 21014KT 20/M00 A2991 RMK A01 T01961001  RH  027%=      5-min Rain = 0
KDO1 161933Z 20012KT 20/00 A2991 RMK A01 T019600-0  RH  027%=      5-min Rain = 0
KDO1 161934Z 19012KT 20/M00 A2991 RMK A01 T01971002  RH  026%=      5-min Rain = 0
KDO1 161935Z 22014KT 20/00 A2991 RMK A01 T019700-0  RH  027%=      5-min Rain = 0
KDO1 161936Z 20016KT 20/M00 A2991 RMK A01 T01971003  RH  026%=      5-min Rain = 0
KDO1 161937Z 20012G17KT 20/00 A2991 RMK A01 T01960000  RH  027%=      5-min Rain = 0
KDO1 161938Z 19012G19KT 20/00 A2991 RMK A01 T01950002  RH  027%=      5-min Rain = 0
KDO1 161939Z 20018KT 20/00 A2991 RMK A01 T01960004  RH  028%=      5-min Rain = 0
KDO1 161940Z 19013KT 20/00 A2991 RMK A01 T01960002  RH  027%=      5-min Rain = 0
KDO1 161941Z 18011KT 19/00 A299 RMK A01 T01940002  RH  027%=      5-min Rain = 0
KDO1 161942Z 18012KT 20/00 A299 RMK A01 T01950004  RH  028%=      5-min Rain = 0
KDO1 161943Z 20011KT 20/00 A299 RMK A01 T01950003  RH  028%=      5-min Rain = 0
KDO1 161944Z 18012KT 20/01 A299 RMK A01 T01950006  RH  028%=      5-min Rain = 0
KDO1 161945Z 18011G16KT 20/01 A299 RMK A01 T01950011  RH  029%=      5-min Rain = 0
KDO1 161946Z 19013KT 20/01 A299 RMK A01 T01970011  RH  029%=      5-min Rain = 0
KDO1 161947Z 18014KT 20/01 A299 RMK A01 T01970013  RH  029%=      5-min Rain = 0
KDO1 161948Z 21015KT 20/01 A299 RMK A01 T01980013  RH  029%=      5-min Rain = 0
KDO1 161949Z 21011KT 20/01 A299 RMK A01 T01980009  RH  028%=      5-min Rain = 0
KDO1 161950Z 19012KT 20/01 A299 RMK A01 T01980007  RH  028%=      5-min Rain = 0
KDO1 161951Z 20012KT 20/01 A299 RMK A01 T01970007  RH  028%=      5-min Rain = 0
KDO1 161952Z 20015KT 20/01 A299 RMK A01 T01970008  RH  028%=      5-min Rain = 0
KDO1 161953Z 21016KT 20/01 A299 RMK A01 T01970008  RH  028%=      5-min Rain = 0
KDO1 161954Z 22014KT 20/00 A299 RMK A01 T01970004  RH  027%=      5-min Rain = 0
KDO1 161955Z 20012KT 20/00 A299 RMK A01 T01960002  RH  027%=      5-min Rain = 0
KDO1 161956Z 19009KT 20/01 A299 RMK A01 T01960011  RH  029%=      5-min Rain = 0
KDO1 161957Z 19009KT 20/02 A299 RMK A01 T01970015  RH  030%=      5-min Rain = 0
KDO1 161958Z 21013G18KT 20/01 A299 RMK A01 T01980014  RH  029%=      5-min Rain = 0
KDO1 161959Z 21012KT 20/01 A299 RMK A01 T01980010  RH  028%=      5-min Rain = 0
KDO1 162000Z 20014KT 20/01 A299 RMK A01 T01970009  RH  028%=      5-min Rain = 0
KDO1 162001Z 19012KT 20/01 A299 RMK A01 T01960009  RH  028%=      5-min Rain = 0
KDO1 162002Z 20013KT 20/01 A299 RMK A01 T01950011  RH  029%=      5-min Rain = 0
KDO1 162003Z 19014KT 20/02 A299 RMK A01 T01960016  RH  030%=      5-min Rain = 0
KDO1 162004Z 18013KT 20/01 A299 RMK A01 T01960014  RH  030%=      5-min Rain = 0
KDO1 162005Z 18014G19KT 20/02 A2989 RMK A01 T01960016  RH  030%=      5-min Rain = 0
KDO1 162006Z 18013KT 20/02 A2989 RMK A01 T01960016  RH  030%=      5-min Rain = 0
KDO1 162007Z 18016KT 20/02 A2989 RMK A01 T01960015  RH  030%=      5-min Rain = 0
KDO1 162008Z 19015KT 20/01 A2989 RMK A01 T01950012  RH  029%=      5-min Rain = 0
KDO1 162009Z 18012KT 19/02 A2989 RMK A01 T01940015  RH  030%=      5-min Rain = 0
KDO1 162010Z 20012G17KT 19/02 A2989 RMK A01 T01940018  RH  031%=      5-min Rain = 0
KDO1 162011Z 21016KT 20/02 A2989 RMK A01 T01950017  RH  031%=      5-min Rain = 0
KDO1 162012Z 19012KT 20/02 A2989 RMK A01 T01950016  RH  030%=      5-min Rain = 0
KDO1 162013Z 19014G19KT 20/02 A2989 RMK A01 T01950015  RH  030%=      5-min Rain = 0
KDO1 162014Z 19016KT 19/02 A2989 RMK A01 T01940017  RH  031%=      5-min Rain = 0
KDO1 162015Z 18015KT 19/01 A2989 RMK A01 T01940014  RH  030%=      5-min Rain = 0
KDO1 162016Z 19015KT 19/01 A2989 RMK A01 T01930012  RH  030%=      5-min Rain = 0
KDO1 162017Z 18015KT 19/01 A2989 RMK A01 T01920012  RH  030%=      5-min Rain = 0
KDO1 162018Z 18016KT 19/01 A2989 RMK A01 T01920014  RH  031%=      5-min Rain = 0
KDO1 162019Z 18015KT 19/01 A2989 RMK A01 T01920014  RH  030%=      5-min Rain = 0
KDO1 162020Z 18015KT 19/02 A2989 RMK A01 T01920015  RH  031%=      5-min Rain = 0
KDO1 162021Z 19013KT 19/02 A2989 RMK A01 T01930015  RH  030%=      5-min Rain = 0
KDO1 162022Z 20014KT 19/02 A2989 RMK A01 T01930017  RH  031%=      5-min Rain = 0
KDO1 162023Z 18016KT 19/02 A2989 RMK A01 T01940017  RH  031%=      5-min Rain = 0
KDO1 162024Z 18016KT 19/02 A2989 RMK A01 T01940017  RH  031%=      5-min Rain = 0
KDO1 162025Z 18013KT 20/02 A2989 RMK A01 T01950019  RH  031%=      5-min Rain = 0
KDO1 162026Z 18012KT 20/02 A2989 RMK A01 T01950016  RH  030%=      5-min Rain = 0
KDO1 162027Z 18013KT 20/01 A2989 RMK A01 T01950014  RH  030%=      5-min Rain = 0
KDO1 162028Z 18010KT 20/01 A2989 RMK A01 T01950014  RH  030%=      5-min Rain = 0
KDO1 162029Z 19014KT 20/02 A2989 RMK A01 T01950018  RH  031%=      5-min Rain = 0
KDO1 162030Z 18014KT 20/02 A2989 RMK A01 T01960015  RH  030%=      5-min Rain = 0
KDO1 162031Z 19011KT 20/02 A2989 RMK A01 T01960016  RH  030%=      5-min Rain = 0
KDO1 162032Z 18012KT 20/02 A2989 RMK A01 T01960016  RH  030%=      5-min Rain = 0
KDO1 162033Z 19012KT 20/02 A2989 RMK A01 T01960015  RH  030%=      5-min Rain = 0
KDO1 162034Z 19012KT 20/02 A2989 RMK A01 T01960016  RH  030%=      5-min Rain = 0
KDO1 162035Z 19014KT 20/02 A2989 RMK A01 T01950018  RH  031%=      5-min Rain = 0
KDO1 162036Z 19011G16KT 20/02 A2988 RMK A01 T01960017  RH  030%=      5-min Rain = 0
KDO1 162037Z 19016KT 20/02 A2989 RMK A01 T01970020  RH  031%=      5-min Rain = 0
KDO1 162038Z 21014KT 20/02 A2989 RMK A01 T01970015  RH  030%=      5-min Rain = 0
KDO1 162039Z 21013KT 20/02 A2989 RMK A01 T01970015  RH  030%=      5-min Rain = 0
KDO1 162040Z 19015KT 20/01 A2988 RMK A01 T01970013  RH  029%=      5-min Rain = 0
KDO1 162041Z 19014KT 20/01 A2989 RMK A01 T01970014  RH  029%=      5-min Rain = 0
KDO1 162042Z 19013KT 20/01 A2989 RMK A01 T01970013  RH  029%=      5-min Rain = 0
KDO1 162043Z 18011KT 20/01 A2988 RMK A01 T01960013  RH  029%=      5-min Rain = 0
KDO1 162044Z 19008KT 20/02 A2988 RMK A01 T01970015  RH  030%=      5-min Rain = 0
KDO1 162045Z 19009KT 20/02 A2988 RMK A01 T01980016  RH  030%=      5-min Rain = 0
KDO1 162046Z 20011KT 20/02 A2988 RMK A01 T01990016  RH  029%=      5-min Rain = 0
KDO1 162047Z 19012KT 20/02 A2988 RMK A01 T02010022  RH  031%=      5-min Rain = 0
KDO1 162048Z 20011KT 20/02 A2988 RMK A01 T02020022  RH  030%=      5-min Rain = 0
KDO1 162049Z 21009KT 20/02 A2988 RMK A01 T02030022  RH  030%=      5-min Rain = 0
KDO1 162050Z 18009KT 20/02 A2988 RMK A01 T02040022  RH  030%=      5-min Rain = 0
KDO1 162051Z 17009KT 20/02 A2988 RMK A01 T02040020  RH  029%=      5-min Rain = 0
KDO1 162052Z 19010G15KT 20/02 A2988 RMK A01 T02040020  RH  029%=      5-min Rain = 0
KDO1 162053Z 19013KT 20/02 A2988 RMK A01 T02040021  RH  030%=      5-min Rain = 0
KDO1 162054Z 20011KT 20/02 A2988 RMK A01 T02040021  RH  030%=      5-min Rain = 0
KDO1 162055Z 20013G18KT 20/01 A2988 RMK A01 T02030014  RH  028%=      5-min Rain = 0
KDO1 162056Z 20010KT 20/01 A2988 RMK A01 T02020012  RH  028%=      5-min Rain = 0
KDO1 162057Z 21011KT 20/01 A2987 RMK A01 T02020013  RH  029%=      5-min Rain = 0
KDO1 162058Z 18010KT 20/02 A2987 RMK A01 T02020018  RH  029%=      5-min Rain = 0
KDO1 162059Z 17011KT 20/02 A2987 RMK A01 T02030019  RH  029%=      5-min Rain = 0
KDO1 162100Z 18011KT 20/02 A2987 RMK A01 T02040019  RH  029%=      5-min Rain = 0
KDO1 162101Z 19015KT 20/02 A2987 RMK A01 T02030023  RH  030%=      5-min Rain = 0
KDO1 162102Z 19014KT 20/02 A2987 RMK A01 T02030021  RH  030%=      5-min Rain = 0
KDO1 162103Z 19011KT 20/02 A2987 RMK A01 T02020020  RH  030%=      5-min Rain = 0
KDO1 162104Z 18011KT 20/02 A2987 RMK A01 T02010023  RH  031%=      5-min Rain = 0
KDO1 162105Z 17013KT 20/02 A2987 RMK A01 T02020019  RH  030%=      5-min Rain = 0
KDO1 162106Z 17010KT 20/01 A2987 RMK A01 T02020014  RH  029%=      5-min Rain = 0
KDO1 162107Z 19011KT 20/02 A2987 RMK A01 T02000018  RH  030%=      5-min Rain = 0
KDO1 162108Z 19011KT 20/02 A2987 RMK A01 T02010019  RH  030%=      5-min Rain = 0
KDO1 162109Z 19013KT 20/02 A2987 RMK A01 T02020021  RH  030%=      5-min Rain = 0
KDO1 162110Z 18011KT 20/02 A2987 RMK A01 T02020018  RH  029%=      5-min Rain = 0
KDO1 162111Z 18010KT 20/02 A2987 RMK A01 T02020015  RH  029%=      5-min Rain = 0
KDO1 162112Z 17011KT 20/01 A2987 RMK A01 T02010014  RH  029%=      5-min Rain = 0
KDO1 162113Z 18011KT 20/02 A2987 RMK A01 T02010016  RH  029%=      5-min Rain = 0
KDO1 162114Z 18014KT 20/02 A2987 RMK A01 T02010016  RH  029%=      5-min Rain = 0
KDO1 162115Z 19011KT 20/02 A2987 RMK A01 T02020017  RH  029%=      5-min Rain = 0
KDO1 162116Z 19009KT 20/02 A2987 RMK A01 T02020022  RH  030%=      5-min Rain = 0
KDO1 162117Z 18006KT 20/02 A2987 RMK A01 T02030022  RH  030%=      5-min Rain = 0
KDO1 162118Z 16009KT 21/02 A2987 RMK A01 T02050023  RH  030%=      5-min Rain = 0
KDO1 162119Z 18012KT 21/02 A2987 RMK A01 T02060020  RH  029%=      5-min Rain = 0
KDO1 162120Z 19015G20KT 21/02 A2987 RMK A01 T02060023  RH  030%=      5-min Rain = 0
KDO1 162121Z 19014G19KT 21/02 A2987 RMK A01 T02060019  RH  029%=      5-min Rain = 0
KDO1 162122Z 18011KT 21/02 A2987 RMK A01 T02050017  RH  029%=      5-min Rain = 0
KDO1 162123Z 19012KT 20/02 A2987 RMK A01 T02040016  RH  029%=      5-min Rain = 0
KDO1 162124Z 19014KT 20/02 A2987 RMK A01 T02040017  RH  029%=      5-min Rain = 0
KDO1 162125Z 20014KT 20/02 A2987 RMK A01 T02030016  RH  029%=      5-min Rain = 0
KDO1 162126Z 20011KT 20/02 A2987 RMK A01 T02030017  RH  029%=      5-min Rain = 0
KDO1 162127Z 19012KT 20/02 A2987 RMK A01 T02040017  RH  029%=      5-min Rain = 0
KDO1 162128Z 19013KT 20/02 A2987 RMK A01 T02040015  RH  028%=      5-min Rain = 0
KDO1 162129Z 19014KT 20/02 A2987 RMK A01 T02040017  RH  029%=      5-min Rain = 0
KDO1 162130Z 19015KT 20/02 A2987 RMK A01 T02040022  RH  030%=      5-min Rain = 0
KDO1 162131Z 18013KT 20/02 A2987 RMK A01 T02040017  RH  029%=      5-min Rain = 0
KDO1 162132Z 18013KT 20/02 A2987 RMK A01 T02030018  RH  029%=      5-min Rain = 0
KDO1 162133Z 17011KT 20/02 A2987 RMK A01 T02020015  RH  029%=      5-min Rain = 0
KDO1 162134Z 16008KT 20/02 A2987 RMK A01 T02020017  RH  029%=      5-min Rain = 0
KDO1 162135Z 18010KT 20/02 A2986 RMK A01 T02030019  RH  029%=      5-min Rain = 0
KDO1 162136Z 17009KT 20/02 A2986 RMK A01 T02040020  RH  029%=      5-min Rain = 0
KDO1 162137Z 18013KT 21/02 A2986 RMK A01 T02050019  RH  029%=      5-min Rain = 0
KDO1 162138Z 19013KT 21/02 A2986 RMK A01 T02060021  RH  029%=      5-min Rain = 0
KDO1 162139Z 18014KT 21/02 A2986 RMK A01 T02050021  RH  029%=      5-min Rain = 0
KDO1 162140Z 18012KT 20/02 A2986 RMK A01 T02040021  RH  030%=      5-min Rain = 0
KDO1 162141Z 16012G17KT 20/02 A2986 RMK A01 T02030020  RH  030%=      5-min Rain = 0
KDO1 162142Z 17018KT 20/02 A2986 RMK A01 T02030019  RH  029%=      5-min Rain = 0
KDO1 162143Z 17014KT 20/02 A2986 RMK A01 T02020017  RH  029%=      5-min Rain = 0
KDO1 162144Z 17015KT 20/02 A2986 RMK A01 T02010019  RH  030%=      5-min Rain = 0
KDO1 162145Z 18016KT 20/02 A2986 RMK A01 T02010020  RH  030%=      5-min Rain = 0
KDO1 162146Z 18014KT 20/02 A2986 RMK A01 T02020019  RH  030%=      5-min Rain = 0
KDO1 162147Z 19014KT 20/02 A2986 RMK A01 T02020020  RH  030%=      5-min Rain = 0
KDO1 162148Z 19013KT 20/02 A2986 RMK A01 T02010022  RH  030%=      5-min Rain = 0
KDO1 162149Z 19016KT 20/02 A2986 RMK A01 T02020021  RH  030%=      5-min Rain = 0
KDO1 162150Z 18016KT 20/02 A2986 RMK A01 T02020019  RH  030%=      5-min Rain = 0
KDO1 162151Z 18015KT 20/02 A2986 RMK A01 T02010019  RH  030%=      5-min Rain = 0
KDO1 162152Z 17012G18KT 20/02 A2986 RMK A01 T02010020  RH  030%=      5-min Rain = 0
KDO1 162153Z 17013KT 20/02 A2986 RMK A01 T02000020  RH  030%=      5-min Rain = 0
KDO1 162154Z 17010KT 20/02 A2986 RMK A01 T02000019  RH  030%=      5-min Rain = 0
KDO1 162155Z 18012KT 20/02 A2986 RMK A01 T02000019  RH  030%=      5-min Rain = 0
KDO1 162156Z 17014KT 20/02 A2986 RMK A01 T02010019  RH  030%=      5-min Rain = 0
KDO1 162157Z 18016G22KT 20/02 A2986 RMK A01 T02010017  RH  029%=      5-min Rain = 0
KDO1 162158Z 17013G18KT 20/02 A2986 RMK A01 T02010017  RH  029%=      5-min Rain = 0
KDO1 162159Z 18013KT 20/02 A2986 RMK A01 T02010020  RH  030%=      5-min Rain = 0
KDO1 162200Z 18014KT 20/02 A2986 RMK A01 T02010022  RH  030%=      5-min Rain = 0
KDO1 162201Z 17013KT 20/02 A2986 RMK A01 T02000019  RH  030%=      5-min Rain = 0
KDO1 162202Z 17013KT 20/02 A2986 RMK A01 T02000017  RH  030%=      5-min Rain = 0
KDO1 162203Z 18016KT 20/02 A2986 RMK A01 T02000019  RH  030%=      5-min Rain = 0
KDO1 162204Z 18013KT 20/02 A2986 RMK A01 T02010020  RH  030%=      5-min Rain = 0
KDO1 162205Z 18014KT 20/02 A2986 RMK A01 T02010019  RH  030%=      5-min Rain = 0
KDO1 162206Z 17013KT 20/02 A2986 RMK A01 T02000019  RH  030%=      5-min Rain = 0
KDO1 162207Z 19014KT 20/02 A2986 RMK A01 T02010021  RH  030%=      5-min Rain = 0
KDO1 162208Z 19013KT 20/02 A2986 RMK A01 T02010019  RH  030%=      5-min Rain = 0
KDO1 162209Z 19013KT 20/02 A2986 RMK A01 T02010022  RH  030%=      5-min Rain = 0
KDO1 162210Z 19012KT 20/02 A2986 RMK A01 T02010021  RH  030%=      5-min Rain = 0
KDO1 162211Z 18015G20KT 20/02 A2986 RMK A01 T02010022  RH  030%=      5-min Rain = 0
KDO1 162212Z 18014KT 20/02 A2986 RMK A01 T02010021  RH  030%=      5-min Rain = 0
KDO1 162213Z 17014KT 20/02 A2985 RMK A01 T02000021  RH  030%=      5-min Rain = 0
KDO1 162214Z 18016KT 20/02 A2985 RMK A01 T02000018  RH  030%=      5-min Rain = 0
KDO1 162215Z 18013KT 20/02 A2985 RMK A01 T02000018  RH  030%=      5-min Rain = 0
KDO1 162216Z 17015KT 20/02 A2985 RMK A01 T01990018  RH  030%=      5-min Rain = 0
KDO1 162217Z 18015KT 20/02 A2985 RMK A01 T02000017  RH  030%=      5-min Rain = 0
KDO1 162218Z 17015KT 20/02 A2985 RMK A01 T01990016  RH  030%=      5-min Rain = 0
KDO1 162219Z 17014KT 20/02 A2985 RMK A01 T01990015  RH  029%=      5-min Rain = 0
KDO1 162220Z 17015KT 20/02 A2985 RMK A01 T01990015  RH  029%=      5-min Rain = 0
KDO1 162221Z 17014KT 20/02 A2985 RMK A01 T01990015  RH  029%=      5-min Rain = 0
KDO1 162222Z 17014KT 20/02 A2985 RMK A01 T01990016  RH  029%=      5-min Rain = 0
KDO1 162223Z 18015KT 20/02 A2985 RMK A01 T01990015  RH  029%=      5-min Rain = 0
KDO1 162224Z 18015G21KT 20/02 A2985 RMK A01 T01990018  RH  030%=      5-min Rain = 0
KDO1 162225Z 18016KT 20/02 A2985 RMK A01 T01990018  RH  030%=      5-min Rain = 0
KDO1 162226Z 18015KT 20/02 A2985 RMK A01 T01980018  RH  030%=      5-min Rain = 0
KDO1 162227Z 20011KT 20/02 A2985 RMK A01 T01970022  RH  031%=      5-min Rain = 0
KDO1 162228Z 19014KT 20/02 A2985 RMK A01 T01960021  RH  031%=      5-min Rain = 0
KDO1 162229Z 17014KT 20/02 A2985 RMK A01 T01950020  RH  031%=      5-min Rain = 0
KDO1 162230Z 18016KT 19/02 A2985 RMK A01 T01940018  RH  031%=      5-min Rain = 0
KDO1 162231Z 18014KT 19/02 A2985 RMK A01 T01940017  RH  031%=      5-min Rain = 0
KDO1 162232Z 18014KT 19/02 A2985 RMK A01 T01930019  RH  031%=      5-min Rain = 0
KDO1 162233Z 18015KT 19/02 A2985 RMK A01 T01930020  RH  032%=      5-min Rain = 0
KDO1 162234Z 18014KT 19/02 A2985 RMK A01 T01930020  RH  032%=      5-min Rain = 0
KDO1 162235Z 18015KT 19/02 A2985 RMK A01 T01920022  RH  032%=      5-min Rain = 0
KDO1 162236Z 18013KT 19/02 A2985 RMK A01 T01930021  RH  032%=      5-min Rain = 0
KDO1 162237Z 18011KT 19/02 A2985 RMK A01 T01940020  RH  032%=      5-min Rain = 0
KDO1 162238Z 17011KT 19/02 A2985 RMK A01 T01940020  RH  031%=      5-min Rain = 0
KDO1 162239Z 17012G17KT 20/02 A2985 RMK A01 T01950020  RH  031%=      5-min Rain = 0
KDO1 162240Z 18016KT 20/02 A2985 RMK A01 T01960017  RH  030%=      5-min Rain = 0
KDO1 162241Z 18016KT 20/02 A2985 RMK A01 T01950015  RH  030%=      5-min Rain = 0
KDO1 162242Z 18016G21KT 19/02 A2985 RMK A01 T01940018  RH  031%=      5-min Rain = 0
KDO1 162243Z 18017KT 19/02 A2985 RMK A01 T01930019  RH  031%=      5-min Rain = 0
KDO1 162244Z 18016KT 19/02 A2985 RMK A01 T01920017  RH  031%=      5-min Rain = 0
KDO1 162245Z 18015KT 19/02 A2985 RMK A01 T01920019  RH  032%=      5-min Rain = 0
KDO1 162246Z 18016KT 19/02 A2985 RMK A01 T01910020  RH  032%=      5-min Rain = 0
KDO1 162247Z 18015KT 19/02 A2985 RMK A01 T01910020  RH  032%=      5-min Rain = 0
KDO1 162248Z 18016KT 19/02 A2985 RMK A01 T01910021  RH  032%=      5-min Rain = 0
KDO1 162249Z 18015KT 19/02 A2985 RMK A01 T01910020  RH  032%=      5-min Rain = 0
KDO1 162250Z 18014KT 19/02 A2985 RMK A01 T01900021  RH  032%=      5-min Rain = 0
KDO1 162251Z 18013KT 19/02 A2985 RMK A01 T01900023  RH  033%=      5-min Rain = 0
KDO1 162252Z 18011KT 19/03 A2985 RMK A01 T01900026  RH  034%=      5-min Rain = 0
KDO1 162253Z 19011KT 19/03 A2985 RMK A01 T01900026  RH  034%=      5-min Rain = 0
KDO1 162254Z 18012KT 19/03 A2985 RMK A01 T01890028  RH  034%=      5-min Rain = 0
KDO1 162255Z 18012KT 19/03 A2985 RMK A01 T01890028  RH  034%=      5-min Rain = 0
KDO1 162256Z 19011KT 19/03 A2985 RMK A01 T01880028  RH  034%=      5-min Rain = 0
KDO1 162257Z 18016KT 19/03 A2985 RMK A01 T01880028  RH  034%=      5-min Rain = 0
KDO1 162258Z 18017KT 19/02 A2985 RMK A01 T01880024  RH  034%=      5-min Rain = 0
KDO1 162259Z 18012KT 19/03 A2985 RMK A01 T01880025  RH  034%=      5-min Rain = 0
KDO1 162300Z 18016KT 19/03 A2985 RMK A01 T01880027  RH  034%=      5-min Rain = 0
KDO1 162301Z 18015KT 19/02 A2985 RMK A01 T01880024  RH  034%=      5-min Rain = 0
KDO1 162302Z 18012KT 19/03 A2985 RMK A01 T01880025  RH  034%=      5-min Rain = 0
KDO1 162303Z 18016KT 19/03 A2985 RMK A01 T01880026  RH  034%=      5-min Rain = 0
KDO1 162304Z 18015KT 19/02 A2985 RMK A01 T01880024  RH  034%=      5-min Rain = 0
KDO1 162305Z 18015KT 19/02 A2985 RMK A01 T01880024  RH  034%=      5-min Rain = 0
KDO1 162306Z 19015KT 19/02 A2985 RMK A01 T01880024  RH  034%=      5-min Rain = 0
KDO1 162307Z 18016KT 19/03 A2985 RMK A01 T01870025  RH  034%=      5-min Rain = 0
KDO1 162308Z 19016KT 19/02 A2985 RMK A01 T01870024  RH  034%=      5-min Rain = 0
KDO1 162309Z 18017KT 19/02 A2985 RMK A01 T01860023  RH  034%=      5-min Rain = 0
KDO1 162310Z 18014KT 19/02 A2985 RMK A01 T01860024  RH  034%=      5-min Rain = 0
KDO1 162311Z 19016KT 19/03 A2985 RMK A01 T01860026  RH  034%=      5-min Rain = 0
KDO1 162312Z 19014KT 19/03 A2985 RMK A01 T01860025  RH  034%=      5-min Rain = 0
KDO1 162313Z 19013KT 19/03 A2985 RMK A01 T01860026  RH  034%=      5-min Rain = 0
KDO1 162314Z 18013KT 19/03 A2985 RMK A01 T01860027  RH  035%=      5-min Rain = 0
KDO1 162315Z 19015KT 19/03 A2985 RMK A01 T01850028  RH  035%=      5-min Rain = 0
KDO1 162316Z 18016KT 19/03 A2985 RMK A01 T01850027  RH  035%=      5-min Rain = 0
KDO1 162317Z 18016KT 18/03 A2985 RMK A01 T01840026  RH  035%=      5-min Rain = 0
KDO1 162318Z 18015KT 18/03 A2985 RMK A01 T01830027  RH  035%=      5-min Rain = 0
KDO1 162319Z 18015KT 18/03 A2985 RMK A01 T01830027  RH  035%=      5-min Rain = 0
KDO1 162320Z 19015KT 18/03 A2985 RMK A01 T01820026  RH  035%=      5-min Rain = 0
KDO1 162321Z 19014KT 18/03 A2985 RMK A01 T01820026  RH  035%=      5-min Rain = 0
KDO1 162322Z 18012KT 18/03 A2985 RMK A01 T01820028  RH  036%=      5-min Rain = 0
KDO1 162323Z 18015KT 18/03 A2985 RMK A01 T01820029  RH  036%=      5-min Rain = 0
KDO1 162324Z 18014KT 18/03 A2985 RMK A01 T01820028  RH  036%=      5-min Rain = 0
KDO1 162325Z 19012KT 18/03 A2985 RMK A01 T01820029  RH  036%=      5-min Rain = 0
KDO1 162326Z 18012KT 18/03 A2985 RMK A01 T01810031  RH  037%=      5-min Rain = 0
KDO1 162327Z 18013KT 18/03 A2985 RMK A01 T01810031  RH  037%=      5-min Rain = 0
KDO1 162328Z 18013KT 18/03 A2985 RMK A01 T01800030  RH  037%=      5-min Rain = 0
KDO1 162329Z 18010KT 18/03 A2985 RMK A01 T01800029  RH  037%=      5-min Rain = 0
KDO1 162330Z 18010KT 18/03 A2985 RMK A01 T01800030  RH  037%=      5-min Rain = 0
KDO1 162331Z 18012KT 18/03 A2985 RMK A01 T01800031  RH  037%=      5-min Rain = 0
KDO1 162332Z 18013KT 18/03 A2985 RMK A01 T01790031  RH  037%=      5-min Rain = 0
KDO1 162333Z 18013KT 18/03 A2985 RMK A01 T01790030  RH  037%=      5-min Rain = 0
KDO1 162334Z 18011KT 18/03 A2985 RMK A01 T01790031  RH  037%=      5-min Rain = 0
KDO1 162335Z 18012KT 18/03 A2985 RMK A01 T01780032  RH  038%=      5-min Rain = 0
KDO1 162336Z 18012KT 18/03 A2985 RMK A01 T01770032  RH  038%=      5-min Rain = 0
KDO1 162337Z 18012KT 18/03 A2985 RMK A01 T01770032  RH  038%=      5-min Rain = 0
KDO1 162338Z 18011KT 18/03 A2984 RMK A01 T01760033  RH  038%=      5-min Rain = 0
KDO1 162339Z 18013KT 18/03 A2984 RMK A01 T01760032  RH  038%=      5-min Rain = 0
KDO1 162340Z 18012KT 18/03 A2984 RMK A01 T01760031  RH  038%=      5-min Rain = 0
KDO1 162341Z 18011KT 18/03 A2984 RMK A01 T01750030  RH  038%=      5-min Rain = 0
KDO1 162342Z 18011KT 18/03 A2984 RMK A01 T01750030  RH  038%=      5-min Rain = 0
KDO1 162343Z 18009KT 18/03 A2984 RMK A01 T01750030  RH  038%=      5-min Rain = 0
KDO1 162344Z 18012KT 17/03 A2984 RMK A01 T01740030  RH  038%=      5-min Rain = 0
KDO1 162345Z 18015KT 17/03 A2984 RMK A01 T01740029  RH  038%=      5-min Rain = 0
KDO1 162346Z 19017KT 17/03 A2984 RMK A01 T01740028  RH  038%=      5-min Rain = 0
KDO1 162347Z 19016KT 17/03 A2984 RMK A01 T01740027  RH  037%=      5-min Rain = 0
KDO1 162348Z 19014KT 17/03 A2984 RMK A01 T01740027  RH  037%=      5-min Rain = 0
KDO1 162349Z 19013KT 17/03 A2984 RMK A01 T01730028  RH  038%=      5-min Rain = 0
KDO1 162350Z 19015KT 17/03 A2984 RMK A01 T01720027  RH  038%=      5-min Rain = 0
KDO1 162351Z 19014KT 17/03 A2984 RMK A01 T01710027  RH  038%=      5-min Rain = 0
KDO1 162352Z 19012KT 17/03 A2984 RMK A01 T01710027  RH  038%=      5-min Rain = 0
KDO1 162353Z 19011KT 17/03 A2984 RMK A01 T01700028  RH  039%=      5-min Rain = 0
KDO1 162354Z 19014KT 17/03 A2984 RMK A01 T01690028  RH  039%=      5-min Rain = 0
KDO1 162355Z 19017KT 17/03 A2984 RMK A01 T01680025  RH  038%=      5-min Rain = 0
KDO1 162356Z 19015KT 17/03 A2984 RMK A01 T01690025  RH  038%=      5-min Rain = 0
KDO1 162357Z 19014KT 17/03 A2984 RMK A01 T01680025  RH  038%=      5-min Rain = 0
KDO1 162358Z 19012KT 17/03 A2984 RMK A01 T01670025  RH  038%=      5-min Rain = 0
KDO1 162359Z 19012KT 17/03 A2984 RMK A01 T01660026  RH  039%=      5-min Rain = 0
KDO1 170000Z 18013KT 17/03 A2984 RMK A01 T01650026  RH  039%=      5-min Rain = 0
KDO1 170001Z 18012KT 16/03 A2984 RMK A01 T01640025  RH  039%=      5-min Rain = 0
KDO1 170002Z 18013KT 16/03 A2984 RMK A01 T01630026  RH  040%=      5-min Rain = 0
KDO1 170003Z 19013G18KT 16/03 A2984 RMK A01 T01630025  RH  040%=      5-min Rain = 0
KDO1 170004Z 19013KT 16/03 A2984 RMK A01 T01620025  RH  040%=      5-min Rain = 0
KDO1 170005Z 18013KT 16/03 A2984 RMK A01 T01610025  RH  040%=      5-min Rain = 0
KDO1 170006Z 18013KT 16/03 A2984 RMK A01 T01600025  RH  040%=      5-min Rain = 0
KDO1 170007Z 18011KT 16/03 A2984 RMK A01 T01590025  RH  040%=      5-min Rain = 0
KDO1 170008Z 18011KT 16/03 A2984 RMK A01 T01570025  RH  041%=      5-min Rain = 0
KDO1 170009Z 18011KT 16/03 A2984 RMK A01 T01560025  RH  041%=      5-min Rain = 0
KDO1 170010Z 18010KT 15/03 A2984 RMK A01 T01540025  RH  042%=      5-min Rain = 0
KDO1 170011Z 18012KT 15/03 A2984 RMK A01 T01530025  RH  042%=      5-min Rain = 0
KDO1 170012Z 18011KT 15/02 A2984 RMK A01 T01520024  RH  042%=      5-min Rain = 0
KDO1 170013Z 18011KT 15/02 A2984 RMK A01 T01510024  RH  042%=      5-min Rain = 0
KDO1 170014Z 18011KT 15/02 A2984 RMK A01 T01500024  RH  043%=      5-min Rain = 0
KDO1 170015Z 18011KT 15/02 A2984 RMK A01 T01500024  RH  043%=      5-min Rain = 0
KDO1 170016Z 18011KT 15/02 A2984 RMK A01 T01490024  RH  043%=      5-min Rain = 0
KDO1 170017Z 18011KT 15/02 A2984 RMK A01 T01480024  RH  043%=      5-min Rain = 0
KDO1 170018Z 18010KT 15/02 A2984 RMK A01 T01470024  RH  044%=      5-min Rain = 0
KDO1 170019Z 18010KT 15/02 A2984 RMK A01 T01460024  RH  044%=      5-min Rain = 0
KDO1 170020Z 18009KT 15/02 A2984 RMK A01 T01450024  RH  044%=      5-min Rain = 0
KDO1 170021Z 18010KT 14/03 A2984 RMK A01 T01440025  RH  044%=      5-min Rain = 0
KDO1 170022Z 19009KT 14/02 A2984 RMK A01 T01430024  RH  045%=      5-min Rain = 0
KDO1 170023Z 19010KT 14/02 A2984 RMK A01 T01420024  RH  045%=      5-min Rain = 0
KDO1 170024Z 18009KT 14/02 A2984 RMK A01 T01410024  RH  045%=      5-min Rain = 0
KDO1 170025Z 19009KT 14/02 A2984 RMK A01 T01410024  RH  045%=      5-min Rain = 0
KDO1 170026Z 19009KT 14/02 A2984 RMK A01 T01400024  RH  045%=      5-min Rain = 0
KDO1 170027Z 19009KT 14/02 A2984 RMK A01 T01390024  RH  046%=      5-min Rain = 0
KDO1 170028Z 18009KT 14/02 A2984 RMK A01 T01370024  RH  046%=      5-min Rain = 0
KDO1 170029Z 18009KT 14/02 A2984 RMK A01 T01370024  RH  046%=      5-min Rain = 0
KDO1 170030Z 19009KT 14/02 A2984 RMK A01 T01360023  RH  047%=      5-min Rain = 0
KDO1 170031Z 19009KT 14/02 A2984 RMK A01 T01350023  RH  047%=      5-min Rain = 0
KDO1 170032Z 18009KT 13/02 A2984 RMK A01 T01340023  RH  047%=      5-min Rain = 0
KDO1 170033Z 19009KT 13/02 A2984 RMK A01 T01340024  RH  047%=      5-min Rain = 0
KDO1 170034Z 19008KT 13/02 A2984 RMK A01 T01330023  RH  047%=      5-min Rain = 0
KDO1 170035Z 19008KT 13/02 A2984 RMK A01 T01330023  RH  047%=      5-min Rain = 0
KDO1 170036Z 19008KT 13/02 A2984 RMK A01 T01320023  RH  048%=      5-min Rain = 0
KDO1 170037Z 19008KT 13/02 A2984 RMK A01 T01310023  RH  048%=      5-min Rain = 0
KDO1 170038Z 19008KT 13/02 A2984 RMK A01 T01300023  RH  048%=      5-min Rain = 0
KDO1 170039Z 18007KT 13/02 A2984 RMK A01 T01290023  RH  048%=      5-min Rain = 0
KDO1 170040Z 18007KT 13/02 A2984 RMK A01 T01290023  RH  049%=      5-min Rain = 0
KDO1 170041Z 18008KT 13/02 A2984 RMK A01 T01280023  RH  049%=      5-min Rain = 0
KDO1 170042Z 18007KT 13/02 A2984 RMK A01 T01270023  RH  049%=      5-min Rain = 0
KDO1 170043Z 18007KT 13/02 A2984 RMK A01 T01260023  RH  049%=      5-min Rain = 0
KDO1 170044Z 18007KT 13/02 A2984 RMK A01 T01250023  RH  050%=      5-min Rain = 0
KDO1 170045Z 18007KT 12/02 A2984 RMK A01 T01240023  RH  050%=      5-min Rain = 0
KDO1 170046Z 18007KT 12/02 A2984 RMK A01 T01230023  RH  050%=      5-min Rain = 0
KDO1 170047Z 18007KT 12/02 A2984 RMK A01 T01220023  RH  051%=      5-min Rain = 0
KDO1 170048Z 18008KT 12/02 A2984 RMK A01 T01210022  RH  051%=      5-min Rain = 0
KDO1 170049Z 18008KT 12/02 A2984 RMK A01 T01200022  RH  051%=      5-min Rain = 0
KDO1 170050Z 18009KT 12/02 A2984 RMK A01 T01200021  RH  051%=      5-min Rain = 0
KDO1 170051Z 17009KT 12/02 A2984 RMK A01 T01190021  RH  051%=      5-min Rain = 0
KDO1 170052Z 17009KT 12/02 A2984 RMK A01 T01180020  RH  051%=      5-min Rain = 0
KDO1 170053Z 17009KT 12/02 A2984 RMK A01 T01180021  RH  051%=      5-min Rain = 0
KDO1 170054Z 17009KT 12/02 A2984 RMK A01 T01180020  RH  051%=      5-min Rain = 0
KDO1 170055Z 18008KT 12/02 A2984 RMK A01 T01190020  RH  051%=      5-min Rain = 0
KDO1 170056Z 18009KT 12/02 A2984 RMK A01 T01210020  RH  050%=      5-min Rain = 0
KDO1 170057Z 18008KT 12/02 A2984 RMK A01 T01210021  RH  050%=      5-min Rain = 0
KDO1 170058Z 18008KT 12/02 A2985 RMK A01 T01220020  RH  050%=      5-min Rain = 0
KDO1 170059Z 18008KT 12/02 A2985 RMK A01 T01220021  RH  050%=      5-min Rain = 0
KDO1 170100Z 19008KT 12/02 A2985 RMK A01 T01220021  RH  050%=      5-min Rain = 0
KDO1 170101Z 19008KT 12/02 A2985 RMK A01 T01220023  RH  051%=      5-min Rain = 0
KDO1 170102Z 18009KT 12/02 A2985 RMK A01 T01210023  RH  051%=      5-min Rain = 0
KDO1 170103Z 18008KT 12/02 A2985 RMK A01 T01200023  RH  052%=      5-min Rain = 0
KDO1 170104Z 18008KT 12/02 A2985 RMK A01 T01190024  RH  052%=      5-min Rain = 0
KDO1 170105Z 18008KT 12/02 A2985 RMK A01 T01180024  RH  052%=      5-min Rain = 0
KDO1 170106Z 18008KT 12/02 A2985 RMK A01 T01170024  RH  053%=      5-min Rain = 0
KDO1 170107Z 18008KT 12/02 A2985 RMK A01 T01160024  RH  053%=      5-min Rain = 0
KDO1 170108Z 18009KT 12/02 A2985 RMK A01 T01150024  RH  053%=      5-min Rain = 0
KDO1 170109Z 18008KT 12/02 A2985 RMK A01 T01150023  RH  053%=      5-min Rain = 0
KDO1 170110Z 18008KT 11/02 A2985 RMK A01 T01140023  RH  054%=      5-min Rain = 0
KDO1 170111Z 18008KT 11/02 A2985 RMK A01 T01130023  RH  054%=      5-min Rain = 0
KDO1 170112Z 19008KT 11/02 A2985 RMK A01 T01130023  RH  054%=      5-min Rain = 0
KDO1 170113Z 18008KT 11/02 A2985 RMK A01 T01130023  RH  054%=      5-min Rain = 0
KDO1 170114Z 18008KT 11/02 A2985 RMK A01 T01130023  RH  054%=      5-min Rain = 0
KDO1 170115Z 18008KT 11/02 A2985 RMK A01 T01120023  RH  054%=      5-min Rain = 0
KDO1 170116Z 18008KT 11/02 A2985 RMK A01 T01110023  RH  054%=      5-min Rain = 0
KDO1 170117Z 18008KT 11/02 A2985 RMK A01 T01110023  RH  055%=      5-min Rain = 0
KDO1 170118Z 18008KT 11/02 A2985 RMK A01 T01100023  RH  055%=      5-min Rain = 0
KDO1 170119Z 19008KT 11/02 A2985 RMK A01 T01100023  RH  055%=      5-min Rain = 0
KDO1 170120Z 19008KT 11/02 A2985 RMK A01 T01090022  RH  055%=      5-min Rain = 0
KDO1 170121Z 19008KT 11/02 A2985 RMK A01 T01090023  RH  055%=      5-min Rain = 0
KDO1 170122Z 19008KT 11/02 A2985 RMK A01 T01090023  RH  055%=      5-min Rain = 0
KDO1 170123Z 19008KT 11/02 A2985 RMK A01 T01080023  RH  056%=      5-min Rain = 0
KDO1 170124Z 19007KT 11/02 A2985 RMK A01 T01080023  RH  056%=      5-min Rain = 0
KDO1 170125Z 19007KT 11/02 A2985 RMK A01 T01070023  RH  056%=      5-min Rain = 0
KDO1 170126Z 19007KT 11/02 A2985 RMK A01 T01060022  RH  056%=      5-min Rain = 0
KDO1 170127Z 19007KT 11/02 A2985 RMK A01 T01060022  RH  056%=      5-min Rain = 0
KDO1 170128Z 19007KT 11/02 A2985 RMK A01 T01050022  RH  056%=      5-min Rain = 0
KDO1 170129Z 19007KT 11/02 A2985 RMK A01 T01050022  RH  056%=      5-min Rain = 0
KDO1 170130Z 20007KT 10/02 A2985 RMK A01 T01040021  RH  056%=      5-min Rain = 0
KDO1 170131Z 20007KT 10/02 A2985 RMK A01 T01030021  RH  057%=      5-min Rain = 0
KDO1 170132Z 20006KT 10/02 A2985 RMK A01 T01030021  RH  057%=      5-min Rain = 0
KDO1 170133Z 20006KT 10/02 A2985 RMK A01 T01020020  RH  057%=      5-min Rain = 0
KDO1 170134Z 20006KT 10/02 A2985 RMK A01 T01020020  RH  057%=      5-min Rain = 0
KDO1 170135Z 20007KT 10/02 A2985 RMK A01 T01010020  RH  057%=      5-min Rain = 0
KDO1 170136Z 19007KT 10/02 A2985 RMK A01 T01010020  RH  057%=      5-min Rain = 0
KDO1 170137Z 19006KT 10/02 A2985 RMK A01 T01010021  RH  058%=      5-min Rain = 0
KDO1 170138Z 19007KT 10/02 A2985 RMK A01 T01010021  RH  058%=      5-min Rain = 0
KDO1 170139Z 19007KT 10/02 A2985 RMK A01 T01010021  RH  058%=      5-min Rain = 0
KDO1 170140Z 19008KT 10/02 A2985 RMK A01 T01010021  RH  058%=      5-min Rain = 0
KDO1 170141Z 19008KT 10/02 A2985 RMK A01 T01010022  RH  058%=      5-min Rain = 0
KDO1 170142Z 19008KT 10/02 A2985 RMK A01 T01010023  RH  058%=      5-min Rain = 0
KDO1 170143Z 19008KT 10/02 A2985 RMK A01 T01020023  RH  058%=      5-min Rain = 0
KDO1 170144Z 19008KT 10/02 A2985 RMK A01 T01030023  RH  058%=      5-min Rain = 0
KDO1 170145Z 19008KT 10/02 A2985 RMK A01 T01040023  RH  058%=      5-min Rain = 0
KDO1 170146Z 19008KT 10/02 A2985 RMK A01 T01040023  RH  057%=      5-min Rain = 0
KDO1 170147Z 19008KT 10/02 A2985 RMK A01 T01040023  RH  057%=      5-min Rain = 0
KDO1 170148Z 19007KT 10/02 A2985 RMK A01 T01040023  RH  057%=      5-min Rain = 0
KDO1 170149Z 19008KT 10/02 A2985 RMK A01 T01040024  RH  058%=      5-min Rain = 0
KDO1 170150Z 19008KT 10/02 A2985 RMK A01 T01030023  RH  058%=      5-min Rain = 0
KDO1 170151Z 19008KT 10/02 A2985 RMK A01 T01020023  RH  058%=      5-min Rain = 0
KDO1 170152Z 19007KT 10/02 A2985 RMK A01 T01020023  RH  058%=      5-min Rain = 0
KDO1 170153Z 19007KT 10/02 A2985 RMK A01 T01010023  RH  058%=      5-min Rain = 0
KDO1 170154Z 19007KT 10/02 A2985 RMK A01 T01010023  RH  058%=      5-min Rain = 0
KDO1 170155Z 19006KT 10/02 A2985 RMK A01 T01000022  RH  059%=      5-min Rain = 0
KDO1 170156Z 19007KT 10/02 A2985 RMK A01 T00990022  RH  059%=      5-min Rain = 0
KDO1 170157Z 19007KT 10/02 A2985 RMK A01 T00980022  RH  059%=      5-min Rain = 0
KDO1 170158Z 19007KT 10/02 A2985 RMK A01 T00980022  RH  059%=      5-min Rain = 0
KDO1 170159Z 19007KT 10/02 A2985 RMK A01 T00970022  RH  059%=      5-min Rain = 0
KDO1 170200Z 19007KT 10/02 A2985 RMK A01 T00970022  RH  060%=      5-min Rain = 0
KDO1 170201Z 19007KT 10/02 A2985 RMK A01 T00960022  RH  060%=      5-min Rain = 0
KDO1 170202Z 19008KT 10/02 A2985 RMK A01 T00960022  RH  060%=      5-min Rain = 0
KDO1 170203Z 19008KT 10/02 A2985 RMK A01 T00960022  RH  060%=      5-min Rain = 0
KDO1 170204Z 19008KT 10/02 A2985 RMK A01 T00960022  RH  060%=      5-min Rain = 0
KDO1 170205Z 19008KT 10/02 A2985 RMK A01 T00960022  RH  060%=      5-min Rain = 0
KDO1 170206Z 19008KT 10/02 A2985 RMK A01 T00960022  RH  060%=      5-min Rain = 0
KDO1 170207Z 19008KT 10/02 A2985 RMK A01 T00960023  RH  060%=      5-min Rain = 0
KDO1 170208Z 18008KT 10/02 A2985 RMK A01 T00950023  RH  060%=      5-min Rain = 0
KDO1 170209Z 18008KT 10/02 A2985 RMK A01 T00950023  RH  061%=      5-min Rain = 0
KDO1 170210Z 18008KT 10/02 A2985 RMK A01 T00950023  RH  061%=      5-min Rain = 0
KDO1 170211Z 18008KT 10/02 A2985 RMK A01 T00950023  RH  061%=      5-min Rain = 0
KDO1 170212Z 18008KT 10/02 A2985 RMK A01 T00950023  RH  061%=      5-min Rain = 0
KDO1 170213Z 18008KT 10/02 A2985 RMK A01 T00950023  RH  061%=      5-min Rain = 0
KDO1 170214Z 18008KT 10/02 A2985 RMK A01 T00950024  RH  061%=      5-min Rain = 0
KDO1 170215Z 18009KT 10/02 A2985 RMK A01 T00950024  RH  061%=      5-min Rain = 0
KDO1 170216Z 18008KT 10/02 A2985 RMK A01 T00950024  RH  061%=      5-min Rain = 0
KDO1 170217Z 18008KT 10/02 A2985 RMK A01 T00950024  RH  061%=      5-min Rain = 0
KDO1 170218Z 19008KT 09/02 A2985 RMK A01 T00940024  RH  061%=      5-min Rain = 0
KDO1 170219Z 18009KT 10/02 A2985 RMK A01 T00950024  RH  062%=      5-min Rain = 0
KDO1 170220Z 19008KT 09/02 A2985 RMK A01 T00940024  RH  062%=      5-min Rain = 0
KDO1 170221Z 19009KT 09/03 A2985 RMK A01 T00940025  RH  062%=      5-min Rain = 0
KDO1 170222Z 19009KT 09/02 A2985 RMK A01 T00940024  RH  062%=      5-min Rain = 0
KDO1 170223Z 19008KT 09/03 A2985 RMK A01 T00940025  RH  062%=      5-min Rain = 0
KDO1 170224Z 19008KT 09/03 A2985 RMK A01 T00940025  RH  062%=      5-min Rain = 0
KDO1 170225Z 19008KT 09/03 A2985 RMK A01 T00940025  RH  062%=      5-min Rain = 0
KDO1 170226Z 19008KT 09/03 A2985 RMK A01 T00930025  RH  062%=      5-min Rain = 0
KDO1 170227Z 19008KT 09/03 A2985 RMK A01 T00940025  RH  062%=      5-min Rain = 0
KDO1 170228Z 19008KT 09/03 A2985 RMK A01 T00930025  RH  062%=      5-min Rain = 0
KDO1 170229Z 19007KT 09/03 A2985 RMK A01 T00930025  RH  063%=      5-min Rain = 0
KDO1 170230Z 19007KT 09/02 A2985 RMK A01 T00920024  RH  063%=      5-min Rain = 0
KDO1 170231Z 19007KT 09/02 A2985 RMK A01 T00910024  RH  063%=      5-min Rain = 0
KDO1 170232Z 20006KT 09/02 A2985 RMK A01 T00900024  RH  063%=      5-min Rain = 0
KDO1 170233Z 20006KT 09/02 A2985 RMK A01 T00900023  RH  063%=      5-min Rain = 0
KDO1 170234Z 20006KT 09/02 A2985 RMK A01 T00890023  RH  063%=      5-min Rain = 0
KDO1 170235Z 20006KT 09/02 A2985 RMK A01 T00890022  RH  063%=      5-min Rain = 0
KDO1 170236Z 20006KT 09/02 A2985 RMK A01 T00880022  RH  063%=      5-min Rain = 0
KDO1 170237Z 20006KT 09/02 A2985 RMK A01 T00870021  RH  063%=      5-min Rain = 0
KDO1 170238Z 20006KT 09/02 A2985 RMK A01 T00870021  RH  063%=      5-min Rain = 0
KDO1 170239Z 20005KT 09/02 A2985 RMK A01 T00870021  RH  063%=      5-min Rain = 0
KDO1 170240Z 20006KT 09/02 A2985 RMK A01 T00870020  RH  063%=      5-min Rain = 0
KDO1 170241Z 20006KT 09/02 A2985 RMK A01 T00870020  RH  063%=      5-min Rain = 0
KDO1 170242Z 20006KT 09/02 A2985 RMK A01 T00870019  RH  063%=      5-min Rain = 0
KDO1 170243Z 20006KT 09/02 A2985 RMK A01 T00870019  RH  062%=      5-min Rain = 0
KDO1 170244Z 20006KT 09/02 A2985 RMK A01 T00870019  RH  062%=      5-min Rain = 0
KDO1 170245Z 20006KT 09/02 A2985 RMK A01 T00870019  RH  062%=      5-min Rain = 0
KDO1 170246Z 19006KT 09/02 A2985 RMK A01 T00870018  RH  062%=      5-min Rain = 0
KDO1 170247Z 20006KT 09/02 A2985 RMK A01 T00870019  RH  062%=      5-min Rain = 0
KDO1 170248Z 20006KT 09/02 A2984 RMK A01 T00870019  RH  062%=      5-min Rain = 0
KDO1 170249Z 19006KT 09/02 A2984 RMK A01 T00870018  RH  062%=      5-min Rain = 0
KDO1 170250Z 20006KT 09/02 A2984 RMK A01 T00870018  RH  062%=      5-min Rain = 0
KDO1 170251Z 20006KT 09/02 A2984 RMK A01 T00870018  RH  062%=      5-min Rain = 0
KDO1 170252Z 20006KT 09/02 A2984 RMK A01 T00870018  RH  062%=      5-min Rain = 0
KDO1 170253Z 20006KT 09/02 A2984 RMK A01 T00870018  RH  062%=      5-min Rain = 0
KDO1 170254Z 20006KT 09/02 A2984 RMK A01 T00870018  RH  062%=      5-min Rain = 0
KDO1 170255Z 20006KT 09/02 A2984 RMK A01 T00870018  RH  062%=      5-min Rain = 0
KDO1 170256Z 19006KT 09/02 A2984 RMK A01 T00870018  RH  062%=      5-min Rain = 0
KDO1 170257Z 20006KT 09/02 A2984 RMK A01 T00870019  RH  062%=      5-min Rain = 0
KDO1 170258Z 20006KT 09/02 A2984 RMK A01 T00870019  RH  062%=      5-min Rain = 0
KDO1 170259Z 19006KT 09/02 A2984 RMK A01 T00870019  RH  062%=      5-min Rain = 0
KDO1 170300Z 19006KT 09/02 A2984 RMK A01 T00870019  RH  062%=      5-min Rain = 0
KDO1 170301Z 20006KT 09/02 A2984 RMK A01 T00860019  RH  063%=      5-min Rain = 0
KDO1 170302Z 19006KT 09/02 A2984 RMK A01 T00860019  RH  063%=      5-min Rain = 0
KDO1 170303Z 19005KT 09/02 A2984 RMK A01 T00860019  RH  063%=      5-min Rain = 0
KDO1 170304Z 19006KT 09/02 A2984 RMK A01 T00860019  RH  063%=      5-min Rain = 0
KDO1 170305Z 19006KT 09/02 A2984 RMK A01 T00850019  RH  063%=      5-min Rain = 0
KDO1 170306Z 20006KT 09/02 A2984 RMK A01 T00850019  RH  063%=      5-min Rain = 0
KDO1 170307Z 20006KT 08/02 A2984 RMK A01 T00840019  RH  063%=      5-min Rain = 0
KDO1 170308Z 20006KT 08/02 A2984 RMK A01 T00840019  RH  063%=      5-min Rain = 0
KDO1 170309Z 20006KT 08/02 A2984 RMK A01 T00840019  RH  063%=      5-min Rain = 0
KDO1 170310Z 20006KT 08/02 A2984 RMK A01 T00840018  RH  063%=      5-min Rain = 0
KDO1 170311Z 20006KT 08/02 A2984 RMK A01 T00840018  RH  063%=      5-min Rain = 0
KDO1 170312Z 20006KT 08/02 A2984 RMK A01 T00830017  RH  063%=      5-min Rain = 0
KDO1 170313Z 20007KT 08/02 A2984 RMK A01 T00830016  RH  063%=      5-min Rain = 0
KDO1 170314Z 20008KT 08/02 A2984 RMK A01 T00820016  RH  063%=      5-min Rain = 0
KDO1 170315Z 20007KT 08/02 A2984 RMK A01 T00820017  RH  063%=      5-min Rain = 0
KDO1 170316Z 20007KT 08/02 A2984 RMK A01 T00820018  RH  064%=      5-min Rain = 0
KDO1 170317Z 20007KT 08/02 A2984 RMK A01 T00830018  RH  063%=      5-min Rain = 0
KDO1 170318Z 20008KT 08/02 A2984 RMK A01 T00840018  RH  063%=      5-min Rain = 0
KDO1 170319Z 20009KT 08/02 A2984 RMK A01 T00840019  RH  063%=      5-min Rain = 0
KDO1 170320Z 20008KT 09/02 A2984 RMK A01 T00860019  RH  063%=      5-min Rain = 0
KDO1 170321Z 20007KT 09/02 A2984 RMK A01 T00860019  RH  063%=      5-min Rain = 0
KDO1 170322Z 21008KT 09/02 A2984 RMK A01 T00860018  RH  063%=      5-min Rain = 0
KDO1 170323Z 20008KT 08/02 A2984 RMK A01 T00840018  RH  063%=      5-min Rain = 0
KDO1 170324Z 20008KT 08/02 A2984 RMK A01 T00830018  RH  063%=      5-min Rain = 0
KDO1 170325Z 20008KT 08/02 A2984 RMK A01 T00830018  RH  064%=      5-min Rain = 0
KDO1 170326Z 20008KT 08/02 A2984 RMK A01 T00820018  RH  064%=      5-min Rain = 0
KDO1 170327Z 20008KT 08/02 A2984 RMK A01 T00810017  RH  064%=      5-min Rain = 0
KDO1 170328Z 20008KT 08/02 A2984 RMK A01 T00820018  RH  064%=      5-min Rain = 0
KDO1 170329Z 20008KT 08/02 A2984 RMK A01 T00810018  RH  064%=      5-min Rain = 0
KDO1 170330Z 20009KT 08/02 A2984 RMK A01 T00810018  RH  064%=      5-min Rain = 0
KDO1 170331Z 20008KT 08/02 A2984 RMK A01 T00800018  RH  065%=      5-min Rain = 0
KDO1 170332Z 20008KT 08/02 A2984 RMK A01 T00800018  RH  065%=      5-min Rain = 0
KDO1 170333Z 20008KT 08/02 A2984 RMK A01 T00810018  RH  065%=      5-min Rain = 0
KDO1 170334Z 20008KT 08/02 A2984 RMK A01 T00810018  RH  064%=      5-min Rain = 0
KDO1 170335Z 20008KT 08/02 A2984 RMK A01 T00810018  RH  064%=      5-min Rain = 0
KDO1 170336Z 20008KT 08/02 A2984 RMK A01 T00810018  RH  065%=      5-min Rain = 0
KDO1 170337Z 20007KT 08/02 A2984 RMK A01 T00800018  RH  065%=      5-min Rain = 0
KDO1 170338Z 21007KT 08/02 A2984 RMK A01 T00800018  RH  065%=      5-min Rain = 0
KDO1 170339Z 20007KT 08/02 A2984 RMK A01 T00800018  RH  065%=      5-min Rain = 0
KDO1 170340Z 20008KT 08/02 A2984 RMK A01 T00800018  RH  065%=      5-min Rain = 0
KDO1 170341Z 20007KT 08/02 A2984 RMK A01 T00800018  RH  065%=      5-min Rain = 0
KDO1 170342Z 21008KT 08/02 A2984 RMK A01 T00800018  RH  065%=      5-min Rain = 0
KDO1 170343Z 21007KT 08/02 A2984 RMK A01 T00800018  RH  065%=      5-min Rain = 0
KDO1 170344Z 21008KT 08/02 A2984 RMK A01 T00800018  RH  065%=      5-min Rain = 0
KDO1 170345Z 21008KT 08/02 A2984 RMK A01 T00790018  RH  065%=      5-min Rain = 0
KDO1 170346Z 21008KT 08/02 A2984 RMK A01 T00800018  RH  065%=      5-min Rain = 0
KDO1 170347Z 21008KT 08/02 A2984 RMK A01 T00790017  RH  065%=      5-min Rain = 0
KDO1 170348Z 21008KT 08/02 A2984 RMK A01 T00790018  RH  065%=      5-min Rain = 0
KDO1 170349Z 21008KT 08/02 A2984 RMK A01 T00800018  RH  065%=      5-min Rain = 0
KDO1 170350Z 21008KT 08/02 A2984 RMK A01 T00800018  RH  065%=      5-min Rain = 0
KDO1 170351Z 21008KT 08/02 A2984 RMK A01 T00810018  RH  065%=      5-min Rain = 0
KDO1 170352Z 21008KT 08/02 A2984 RMK A01 T00810019  RH  065%=      5-min Rain = 0
KDO1 170353Z 21008KT 08/02 A2984 RMK A01 T00820019  RH  065%=      5-min Rain = 0
KDO1 170354Z 21008KT 08/02 A2984 RMK A01 T00820019  RH  064%=      5-min Rain = 0
KDO1 170355Z 21007KT 08/02 A2984 RMK A01 T00820019  RH  064%=      5-min Rain = 0
KDO1 170356Z 21007KT 08/02 A2984 RMK A01 T00820019  RH  064%=      5-min Rain = 0
KDO1 170357Z 21006KT 08/02 A2984 RMK A01 T00820018  RH  064%=      5-min Rain = 0
KDO1 170358Z 21006KT 08/02 A2984 RMK A01 T00820018  RH  064%=      5-min Rain = 0
KDO1 170359Z 21006KT 08/02 A2984 RMK A01 T00830018  RH  064%=      5-min Rain = 0
KDO1 170400Z 22006KT 08/02 A2984 RMK A01 T00830018  RH  064%=      5-min Rain = 0
KDO1 170401Z 22006KT 08/02 A2984 RMK A01 T00830018  RH  063%=      5-min Rain = 0
KDO1 170402Z 22005KT 08/02 A2985 RMK A01 T00830017  RH  063%=      5-min Rain = 0
KDO1 170403Z 22006KT 08/02 A2985 RMK A01 T00820016  RH  063%=      5-min Rain = 0
KDO1 170404Z 22005KT 08/02 A2985 RMK A01 T00800015  RH  063%=      5-min Rain = 0
KDO1 170405Z 21006KT 08/01 A2985 RMK A01 T00790014  RH  064%=      5-min Rain = 0
KDO1 170406Z 22005KT 08/01 A2985 RMK A01 T00780014  RH  064%=      5-min Rain = 0
KDO1 170407Z 22005KT 08/01 A2985 RMK A01 T00780014  RH  064%=      5-min Rain = 0
KDO1 170408Z 22005KT 08/01 A2985 RMK A01 T00780014  RH  064%=      5-min Rain = 0
KDO1 170409Z 22005KT 08/02 A2985 RMK A01 T00790015  RH  064%=      5-min Rain = 0
KDO1 170410Z 22005KT 08/02 A2985 RMK A01 T00790015  RH  064%=      5-min Rain = 0
KDO1 170411Z 22005KT 08/02 A2985 RMK A01 T00800015  RH  064%=      5-min Rain = 0
KDO1 170412Z 22004KT 08/02 A2985 RMK A01 T00810015  RH  063%=      5-min Rain = 0
KDO1 170413Z 22004KT 08/02 A2985 RMK A01 T00810015  RH  063%=      5-min Rain = 0
KDO1 170414Z 21005KT 08/02 A2985 RMK A01 T00810015  RH  063%=      5-min Rain = 0
KDO1 170415Z 22005KT 08/02 A2985 RMK A01 T00820016  RH  063%=      5-min Rain = 0
KDO1 170416Z 22005KT 08/02 A2985 RMK A01 T00830016  RH  063%=      5-min Rain = 0
KDO1 170417Z 21005KT 08/02 A2985 RMK A01 T00830015  RH  063%=      5-min Rain = 0
KDO1 170418Z 21005KT 08/02 A2985 RMK A01 T00830016  RH  062%=      5-min Rain = 0
KDO1 170419Z 22005KT 08/02 A2985 RMK A01 T00830015  RH  062%=      5-min Rain = 0
KDO1 170420Z 22005KT 08/02 A2985 RMK A01 T00830015  RH  062%=      5-min Rain = 0
KDO1 170421Z 21005KT 08/02 A2985 RMK A01 T00830015  RH  062%=      5-min Rain = 0
KDO1 170422Z 22004KT 08/02 A2985 RMK A01 T00830015  RH  062%=      5-min Rain = 0
KDO1 170423Z 22005KT 08/02 A2985 RMK A01 T00840015  RH  062%=      5-min Rain = 0
KDO1 170424Z 21004KT 08/02 A2985 RMK A01 T00840015  RH  062%=      5-min Rain = 0
KDO1 170425Z 22004KT 08/02 A2985 RMK A01 T00830015  RH  062%=      5-min Rain = 0
KDO1 170426Z 22005KT 08/02 A2985 RMK A01 T00830015  RH  062%=      5-min Rain = 0
KDO1 170427Z 22005KT 08/02 A2985 RMK A01 T00840015  RH  062%=      5-min Rain = 0
KDO1 170428Z 23005KT 08/02 A2985 RMK A01 T00830015  RH  062%=      5-min Rain = 0
KDO1 170429Z 22005KT 08/01 A2985 RMK A01 T00820014  RH  062%=      5-min Rain = 0
KDO1 170430Z 22005KT 08/01 A2985 RMK A01 T00810014  RH  062%=      5-min Rain = 0
KDO1 170431Z 22005KT 08/01 A2985 RMK A01 T00800013  RH  063%=      5-min Rain = 0
KDO1 170432Z 22005KT 08/01 A2985 RMK A01 T00800013  RH  063%=      5-min Rain = 0
KDO1 170433Z 22005KT 08/01 A2985 RMK A01 T00790013  RH  063%=      5-min Rain = 0
KDO1 170434Z 21005KT 08/01 A2985 RMK A01 T00790013  RH  063%=      5-min Rain = 0
KDO1 170435Z 21005KT 08/01 A2985 RMK A01 T00790013  RH  063%=      5-min Rain = 0
KDO1 170436Z 21005KT 08/01 A2985 RMK A01 T00790014  RH  063%=      5-min Rain = 0
KDO1 170437Z 21005KT 08/01 A2985 RMK A01 T00790014  RH  063%=      5-min Rain = 0
KDO1 170438Z 22005KT 08/01 A2985 RMK A01 T00790013  RH  063%=      5-min Rain = 0
KDO1 170439Z 22004KT 08/01 A2985 RMK A01 T00780013  RH  063%=      5-min Rain = 0
KDO1 170440Z 22004KT 08/01 A2985 RMK A01 T00780013  RH  064%=      5-min Rain = 0
KDO1 170441Z 23004KT 08/01 A2985 RMK A01 T00770013  RH  064%=      5-min Rain = 0
KDO1 170442Z 23004KT 08/01 A2985 RMK A01 T00770013  RH  064%=      5-min Rain = 0
KDO1 170443Z 23004KT 08/01 A2985 RMK A01 T00770013  RH  064%=      5-min Rain = 0
KDO1 170444Z 23004KT 08/01 A2985 RMK A01 T00760013  RH  064%=      5-min Rain = 0
KDO1 170445Z 23005KT 08/01 A2985 RMK A01 T00760013  RH  064%=      5-min Rain = 0
KDO1 170446Z 23005KT 08/01 A2985 RMK A01 T00760013  RH  065%=      5-min Rain = 0
KDO1 170447Z 23005KT 08/01 A2985 RMK A01 T00760013  RH  065%=      5-min Rain = 0
KDO1 170448Z 23005KT 08/01 A2985 RMK A01 T00760013  RH  065%=      5-min Rain = 0
KDO1 170449Z 23005KT 08/01 A2984 RMK A01 T00760014  RH  065%=      5-min Rain = 0
KDO1 170450Z 23005KT 08/01 A2984 RMK A01 T00760014  RH  065%=      5-min Rain = 0
KDO1 170451Z 23005KT 08/01 A2984 RMK A01 T00770014  RH  064%=      5-min Rain = 0
KDO1 170452Z 23006KT 08/01 A2984 RMK A01 T00770014  RH  064%=      5-min Rain = 0
KDO1 170453Z 24005KT 08/01 A2984 RMK A01 T00770014  RH  064%=      5-min Rain = 0
KDO1 170454Z 23006KT 08/01 A2984 RMK A01 T00780014  RH  064%=      5-min Rain = 0
KDO1 170455Z 23006KT 08/01 A2984 RMK A01 T00770014  RH  064%=      5-min Rain = 0
KDO1 170456Z 23007KT 08/01 A2984 RMK A01 T00780014  RH  064%=      5-min Rain = 0
KDO1 170457Z 22006KT 08/02 A2984 RMK A01 T00780015  RH  064%=      5-min Rain = 0
KDO1 170458Z 22007KT 08/02 A2984 RMK A01 T00780015  RH  064%=      5-min Rain = 0
KDO1 170459Z 22007KT 08/02 A2984 RMK A01 T00790015  RH  064%=      5-min Rain = 0
KDO1 170500Z 22006KT 08/02 A2984 RMK A01 T00790015  RH  064%=      5-min Rain = 0
KDO1 170501Z 22008KT 08/02 A2984 RMK A01 T00800015  RH  064%=      5-min Rain = 0
KDO1 170502Z 22007KT 08/02 A2984 RMK A01 T00810016  RH  064%=      5-min Rain = 0
KDO1 170503Z 22007KT 08/02 A2984 RMK A01 T00810016  RH  063%=      5-min Rain = 0
KDO1 170504Z 22007KT 08/02 A2984 RMK A01 T00820016  RH  063%=      5-min Rain = 0
KDO1 170505Z 22007KT 08/02 A2984 RMK A01 T00820016  RH  063%=      5-min Rain = 0
KDO1 170506Z 22007KT 08/02 A2984 RMK A01 T00820016  RH  063%=      5-min Rain = 0
KDO1 170507Z 22007KT 08/02 A2984 RMK A01 T00820016  RH  063%=      5-min Rain = 0
KDO1 170508Z 22006KT 08/02 A2984 RMK A01 T00820016  RH  063%=      5-min Rain = 0
KDO1 170509Z 22007KT 08/02 A2984 RMK A01 T00830016  RH  063%=      5-min Rain = 0
KDO1 170510Z 22007KT 08/02 A2984 RMK A01 T00830017  RH  063%=      5-min Rain = 0
KDO1 170511Z 22006KT 08/02 A2984 RMK A01 T00830016  RH  063%=      5-min Rain = 0
KDO1 170512Z 22007KT 08/02 A2984 RMK A01 T00830015  RH  063%=      5-min Rain = 0
KDO1 170513Z 22006KT 08/02 A2984 RMK A01 T00820015  RH  063%=      5-min Rain = 0
KDO1 170514Z 22006KT 08/02 A2984 RMK A01 T00810015  RH  063%=      5-min Rain = 0
KDO1 170515Z 23006KT 08/01 A2984 RMK A01 T00800014  RH  063%=      5-min Rain = 0
KDO1 170516Z 22006KT 08/01 A2984 RMK A01 T00790014  RH  064%=      5-min Rain = 0
KDO1 170517Z 22006KT 08/01 A2984 RMK A01 T00780014  RH  064%=      5-min Rain = 0
KDO1 170518Z 22006KT 08/01 A2984 RMK A01 T00770013  RH  064%=      5-min Rain = 0
KDO1 170519Z 22007KT 08/01 A2984 RMK A01 T00760013  RH  064%=      5-min Rain = 0
KDO1 170520Z 22006KT 08/01 A2984 RMK A01 T00750013  RH  065%=      5-min Rain = 0
KDO1 170521Z 22006KT 07/01 A2984 RMK A01 T00740012  RH  065%=      5-min Rain = 0
KDO1 170522Z 22007KT 07/01 A2984 RMK A01 T00740012  RH  065%=      5-min Rain = 0
KDO1 170523Z 22007KT 07/01 A2983 RMK A01 T00740012  RH  065%=      5-min Rain = 0
KDO1 170524Z 22007KT 07/01 A2983 RMK A01 T00740012  RH  065%=      5-min Rain = 0
KDO1 170525Z 22007KT 07/01 A2983 RMK A01 T00740012  RH  065%=      5-min Rain = 0
KDO1 170526Z 22007KT 07/01 A2983 RMK A01 T00730012  RH  065%=      5-min Rain = 0
KDO1 170527Z 22007KT 07/01 A2983 RMK A01 T00720011  RH  065%=      5-min Rain = 0
KDO1 170528Z 22007KT 07/01 A2983 RMK A01 T00720012  RH  065%=      5-min Rain = 0
KDO1 170529Z 22007KT 07/01 A2983 RMK A01 T00720012  RH  066%=      5-min Rain = 0
KDO1 170530Z 22007KT 07/01 A2983 RMK A01 T00720012  RH  066%=      5-min Rain = 0
KDO1 170531Z 22007KT 07/01 A2983 RMK A01 T00720012  RH  066%=      5-min Rain = 0
KDO1 170532Z 22007KT 07/01 A2983 RMK A01 T00710011  RH  066%=      5-min Rain = 0
KDO1 170533Z 22006KT 07/01 A2983 RMK A01 T00710011  RH  066%=      5-min Rain = 0
KDO1 170534Z 21007KT 07/01 A2983 RMK A01 T00700011  RH  066%=      5-min Rain = 0
KDO1 170535Z 21007KT 07/01 A2983 RMK A01 T00700011  RH  066%=      5-min Rain = 0
KDO1 170536Z 21006KT 07/01 A2983 RMK A01 T00690011  RH  066%=      5-min Rain = 0
KDO1 170537Z 21006KT 07/01 A2983 RMK A01 T00680010  RH  066%=      5-min Rain = 0
KDO1 170538Z 22006KT 07/01 A2983 RMK A01 T00680010  RH  067%=      5-min Rain = 0
KDO1 170539Z 22005KT 07/01 A2983 RMK A01 T00670010  RH  067%=      5-min Rain = 0
KDO1 170540Z 23005KT 07/01 A2983 RMK A01 T00660009  RH  067%=      5-min Rain = 0
KDO1 170541Z 24005KT 07/01 A2983 RMK A01 T00650009  RH  067%=      5-min Rain = 0
KDO1 170542Z 25005KT 07/01 A2983 RMK A01 T00660011  RH  068%=      5-min Rain = 0
KDO1 170543Z 25005KT 07/01 A2983 RMK A01 T00660010  RH  068%=      5-min Rain = 0
KDO1 170544Z 25005KT 07/01 A2983 RMK A01 T00660011  RH  068%=      5-min Rain = 0
KDO1 170545Z 25005KT 07/01 A2983 RMK A01 T00660011  RH  068%=      5-min Rain = 0
KDO1 170546Z 26005KT 07/01 A2983 RMK A01 T00660011  RH  068%=      5-min Rain = 0
KDO1 170547Z 25005KT 07/01 A2983 RMK A01 T00670012  RH  068%=      5-min Rain = 0
KDO1 170548Z 25005KT 07/01 A2983 RMK A01 T00670012  RH  068%=      5-min Rain = 0
KDO1 170549Z 24005KT 07/01 A2983 RMK A01 T00680012  RH  068%=      5-min Rain = 0
KDO1 170550Z 24006KT 07/01 A2983 RMK A01 T00680012  RH  067%=      5-min Rain = 0
KDO1 170551Z 23006KT 07/01 A2983 RMK A01 T00690013  RH  067%=      5-min Rain = 0
KDO1 170552Z 23006KT 07/01 A2983 RMK A01 T00690013  RH  067%=      5-min Rain = 0
KDO1 170553Z 23006KT 07/01 A2983 RMK A01 T00690013  RH  067%=      5-min Rain = 0
KDO1 170554Z 23006KT 07/01 A2983 RMK A01 T00700013  RH  067%=      5-min Rain = 0
KDO1 170555Z 22005KT 07/01 A2983 RMK A01 T00690012  RH  067%=      5-min Rain = 0
KDO1 170556Z 22005KT 07/01 A2983 RMK A01 T00690012  RH  067%=      5-min Rain = 0
KDO1 170557Z 23005KT 07/01 A2983 RMK A01 T00680012  RH  067%=      5-min Rain = 0
KDO1 170558Z 23005KT 07/01 A2983 RMK A01 T00680012  RH  067%=      5-min Rain = 0
KDO1 170559Z 23004KT 07/01 A2983 RMK A01 T00670011  RH  067%=      5-min Rain = 0

Page generated in 0.1633 seconds.